Wetterdaten: Montag, 25.03.2019
Datum Zeit Temp. Aussen Temp. o. S. +5cm Feuchte Auss Luftdruck Regen Sonnenschein Regendauer Solar Windben Empfang
25.03.2019 00:00 4,1 C 3,3 C 2,2 C 83 % 1021,9 hPa 0,0 l/m 0 min 0 min 0 W/m 0,0 km/h (0 Bft) 93,62 %
25.03.2019 00:02 4,1 C 3,3 C 2,8 C 83 % 1021,9 hPa 0,0 l/m 0 min 0 min 0 W/m 0,0 km/h (0 Bft) 91,43 %
25.03.2019 00:04 4,1 C 3,3 C 2,8 C 83 % 1021,8 hPa 0,0 l/m 0 min 0 min 0 W/m 0,0 km/h (0 Bft) 93,62 %
25.03.2019 00:07 4,1 C 3,3 C 2,8 C 83 % 1021,8 hPa 0,0 l/m 0 min 0 min 0 W/m 0,0 km/h (0 Bft) 91,46 %
25.03.2019 00:08 4,1 C 3,3 C 2,8 C 83 % 1021,8 hPa 0,0 l/m 0 min 0 min 0 W/m 0,0 km/h (0 Bft) 91,67 %
25.03.2019 00:10 4,1 C 3,3 C 2,8 C 83 % 1021,7 hPa 0,0 l/m 0 min 0 min 0 W/m 0,0 km/h (0 Bft) 91,30 %
25.03.2019 00:12 4,1 C 3,3 C 2,8 C 83 % 1021,7 hPa 0,0 l/m 0 min 0 min 0 W/m 9,7 km/h (2 Bft) 93,62 %
25.03.2019 00:14 4,1 C 3,3 C 3,3 C 84 % 1021,7 hPa 0,0 l/m 0 min 0 min 0 W/m 6,4 km/h (2 Bft) 93,62 %
25.03.2019 00:16 4,1 C 3,3 C 3,3 C 84 % 1021,6 hPa 0,0 l/m 0 min 0 min 0 W/m 6,4 km/h (2 Bft) 93,62 %
25.03.2019 00:18 4,1 C 3,3 C 3,3 C 84 % 1021,6 hPa 0,0 l/m 0 min 0 min 0 W/m 6,4 km/h (2 Bft) 95,74 %
25.03.2019 00:20 4,1 C 3,3 C 3,3 C 84 % 1021,5 hPa 0,0 l/m 0 min 0 min 0 W/m 3,2 km/h (1 Bft) 93,62 %
25.03.2019 00:22 4,1 C 3,3 C 3,3 C 84 % 1021,5 hPa 0,0 l/m 0 min 0 min 0 W/m 6,4 km/h (2 Bft) 93,48 %
25.03.2019 00:24 4,1 C 3,3 C 3,3 C 84 % 1021,5 hPa 0,0 l/m 0 min 0 min 0 W/m 6,4 km/h (2 Bft) 95,74 %
25.03.2019 00:26 4,1 C 3,3 C 3,3 C 84 % 1021,5 hPa 0,0 l/m 0 min 0 min 0 W/m 6,4 km/h (2 Bft) 93,62 %
25.03.2019 00:28 4,1 C 3,3 C 3,3 C 84 % 1021,4 hPa 0,0 l/m 0 min 0 min 0 W/m 6,4 km/h (2 Bft) 95,74 %
25.03.2019 00:30 4,1 C 3,3 C 3,3 C 84 % 1021,4 hPa 0,0 l/m 0 min 0 min 0 W/m 6,4 km/h (2 Bft) 95,74 %
25.03.2019 00:32 4,1 C 3,3 C 3,3 C 84 % 1021,4 hPa 0,0 l/m 0 min 0 min 0 W/m 6,4 km/h (2 Bft) 97,87 %
25.03.2019 00:34 4,1 C 3,3 C 3,3 C 84 % 1021,3 hPa 0,0 l/m 0 min 0 min 0 W/m 6,4 km/h (2 Bft) 97,83 %
25.03.2019 00:36 4,1 C 3,3 C 3,3 C 84 % 1021,3 hPa 0,0 l/m 0 min 0 min 0 W/m 6,4 km/h (2 Bft) 96,67 %
25.03.2019 00:38 4,1 C 3,3 C 3,3 C 84 % 1021,3 hPa 0,0 l/m 0 min 0 min 0 W/m 3,2 km/h (1 Bft) 97,14 %
25.03.2019 00:40 4,1 C 3,3 C 3,3 C 84 % 1021,2 hPa 0,0 l/m 0 min 0 min 0 W/m 6,4 km/h (2 Bft) 97,87 %
25.03.2019 00:42 4,1 C 3,3 C 2,8 C 84 % 1021,2 hPa 0,0 l/m 0 min 0 min 0 W/m 6,4 km/h (2 Bft) 95,74 %
25.03.2019 00:44 4,1 C 3,3 C 2,8 C 84 % 1021,1 hPa 0,0 l/m 0 min 0 min 0 W/m 6,4 km/h (2 Bft) 97,87 %
25.03.2019 00:46 4,1 C 3,3 C 2,8 C 84 % 1021,1 hPa 0,0 l/m 0 min 0 min 0 W/m 6,4 km/h (2 Bft) 97,83 %
25.03.2019 00:48 4,1 C 3,3 C 2,8 C 84 % 1021,0 hPa 0,0 l/m 0 min 0 min 0 W/m 3,2 km/h (1 Bft) 97,87 %
25.03.2019 00:50 4,1 C 3,3 C 2,8 C 84 % 1021,0 hPa 0,0 l/m 0 min 0 min 0 W/m 9,7 km/h (2 Bft) 97,87 %
25.03.2019 00:52 4,1 C 3,3 C 2,8 C 84 % 1021,0 hPa 0,0 l/m 0 min 0 min 0 W/m 6,4 km/h (2 Bft) 95,74 %
25.03.2019 00:54 4,1 C 3,3 C 2,8 C 84 % 1020,9 hPa 0,0 l/m 0 min 0 min 0 W/m 6,4 km/h (2 Bft) 97,87 %
25.03.2019 00:56 4,1 C 3,3 C 2,8 C 84 % 1020,9 hPa 0,0 l/m 0 min 0 min 0 W/m 6,4 km/h (2 Bft) 97,83 %
25.03.2019 00:58 4,1 C 3,3 C 2,8 C 85 % 1020,9 hPa 0,0 l/m 0 min 0 min 0 W/m 3,2 km/h (1 Bft) 97,87 %
25.03.2019 01:00 4,1 C 3,3 C 2,8 C 85 % 1020,9 hPa 0,0 l/m 0 min 0 min 0 W/m 0,0 km/h (0 Bft) 97,87 %
25.03.2019 01:02 4,1 C 3,3 C 2,8 C 85 % 1020,8 hPa 0,0 l/m 0 min 0 min 0 W/m 6,4 km/h (2 Bft) 97,87 %
25.03.2019 01:04 4,1 C 3,3 C 2,8 C 85 % 1020,8 hPa 0,0 l/m 0 min 0 min 0 W/m 6,4 km/h (2 Bft) 97,87 %
25.03.2019 01:06 4,0 C 3,3 C 2,8 C 85 % 1020,7 hPa 0,0 l/m 0 min 0 min 0 W/m 6,4 km/h (2 Bft) 96,55 %
25.03.2019 01:08 4,0 C 3,3 C 2,8 C 85 % 1020,7 hPa 0,0 l/m 0 min 0 min 0 W/m 6,4 km/h (2 Bft) 94,29 %
25.03.2019 01:10 4,0 C 3,3 C 2,8 C 85 % 1020,7 hPa 0,0 l/m 0 min 0 min 0 W/m 6,4 km/h (2 Bft) 97,87 %
25.03.2019 01:12 4,0 C 3,3 C 2,8 C 85 % 1020,6 hPa 0,0 l/m 0 min 0 min 0 W/m 6,4 km/h (2 Bft) 100,00 %
25.03.2019 01:14 4,0 C 3,3 C 2,8 C 85 % 1020,6 hPa 0,0 l/m 0 min 0 min 0 W/m 3,2 km/h (1 Bft) 100,00 %
25.03.2019 01:16 4,0 C 3,3 C 2,8 C 85 % 1020,6 hPa 0,0 l/m 0 min 0 min 0 W/m 6,4 km/h (2 Bft) 97,87 %
25.03.2019 01:18 4,0 C 3,3 C 2,8 C 85 % 1020,6 hPa 0,0 l/m 0 min 0 min 0 W/m 6,4 km/h (2 Bft) 100,00 %
25.03.2019 01:20 4,0 C 3,3 C 2,8 C 85 % 1020,5 hPa 0,0 l/m 0 min 0 min 0 W/m 9,7 km/h (2 Bft) 100,00 %
25.03.2019 01:22 4,0 C 3,3 C 2,8 C 85 % 1020,5 hPa 0,0 l/m 0 min 0 min 0 W/m 6,4 km/h (2 Bft) 100,00 %
25.03.2019 01:24 4,0 C 3,3 C 2,8 C 85 % 1020,4 hPa 0,0 l/m 0 min 0 min 0 W/m 6,4 km/h (2 Bft) 100,00 %
25.03.2019 01:26 3,9 C 3,3 C 2,8 C 85 % 1020,4 hPa 0,0 l/m 0 min 0 min 0 W/m 6,4 km/h (2 Bft) 100,00 %
25.03.2019 01:28 3,9 C 3,3 C 2,8 C 86 % 1020,4 hPa 0,0 l/m 0 min 0 min 0 W/m 3,2 km/h (1 Bft) 100,00 %
25.03.2019 01:30 3,9 C 3,3 C 2,8 C 86 % 1020,3 hPa 0,0 l/m 0 min 0 min 0 W/m 6,4 km/h (2 Bft) 97,87 %
25.03.2019 01:32 4,0 C 3,3 C 3,3 C 85 % 1020,3 hPa 0,0 l/m 0 min 0 min 0 W/m 6,4 km/h (2 Bft) 97,83 %
25.03.2019 01:34 4,0 C 3,3 C 3,3 C 85 % 1020,3 hPa 0,0 l/m 0 min 0 min 0 W/m 9,7 km/h (2 Bft) 100,00 %
25.03.2019 01:36 4,0 C 3,3 C 3,3 C 86 % 1020,3 hPa 0,0 l/m 0 min 0 min 0 W/m 6,4 km/h (2 Bft) 98,31 %
25.03.2019 01:38 4,0 C 3,9 C 3,3 C 86 % 1020,2 hPa 0,0 l/m 0 min 0 min 0 W/m 6,4 km/h (2 Bft) 97,14 %
25.03.2019 01:40 4,0 C 3,9 C 3,3 C 86 % 1020,2 hPa 0,0 l/m 0 min 0 min 0 W/m 6,4 km/h (2 Bft) 97,87 %
25.03.2019 01:42 4,1 C 3,9 C 3,3 C 86 % 1020,1 hPa 0,0 l/m 0 min 0 min 0 W/m 9,7 km/h (2 Bft) 100,00 %
25.03.2019 01:44 4,1 C 3,9 C 3,3 C 86 % 1020,1 hPa 0,0 l/m 0 min 0 min 0 W/m 6,4 km/h (2 Bft) 100,00 %
25.03.2019 01:46 4,1 C 3,9 C 3,3 C 86 % 1020,1 hPa 0,0 l/m 0 min 0 min 0 W/m 9,7 km/h (2 Bft) 100,00 %
25.03.2019 01:48 4,1 C 3,9 C 3,3 C 86 % 1020,1 hPa 0,0 l/m 0 min 0 min 0 W/m 6,4 km/h (2 Bft) 97,87 %
25.03.2019 01:50 4,2 C 3,9 C 3,3 C 86 % 1020,0 hPa 0,0 l/m 0 min 0 min 0 W/m 9,7 km/h (2 Bft) 97,87 %
25.03.2019 01:52 4,2 C 3,9 C 3,3 C 86 % 1020,0 hPa 0,0 l/m 0 min 0 min 0 W/m 6,4 km/h (2 Bft) 100,00 %
25.03.2019 01:54 4,2 C 3,9 C 3,3 C 86 % 1019,9 hPa 0,0 l/m 0 min 0 min 0 W/m 6,4 km/h (2 Bft) 100,00 %
25.03.2019 01:56 4,2 C 3,9 C 3,3 C 86 % 1019,9 hPa 0,0 l/m 0 min 0 min 0 W/m 9,7 km/h (2 Bft) 97,83 %
25.03.2019 01:58 4,2 C 3,9 C 3,3 C 86 % 1019,9 hPa 0,0 l/m 0 min 0 min 0 W/m 16,1 km/h (3 Bft) 97,87 %
25.03.2019 02:00 4,2 C 3,9 C 3,3 C 86 % 1019,9 hPa 0,0 l/m 0 min 0 min 0 W/m 6,4 km/h (2 Bft) 97,87 %
25.03.2019 02:02 4,3 C 3,9 C 3,3 C 86 % 1019,8 hPa 0,0 l/m 0 min 0 min 0 W/m 16,1 km/h (3 Bft) 97,87 %
25.03.2019 02:04 4,3 C 3,9 C 3,3 C 86 % 1019,8 hPa 0,0 l/m 0 min 0 min 0 W/m 12,9 km/h (3 Bft) 97,87 %
25.03.2019 02:06 4,3 C 3,9 C 3,3 C 86 % 1019,7 hPa 0,0 l/m 0 min 0 min 0 W/m 6,4 km/h (2 Bft) 96,55 %
25.03.2019 02:08 4,3 C 3,9 C 3,3 C 86 % 1019,7 hPa 0,0 l/m 0 min 0 min 0 W/m 12,9 km/h (3 Bft) 100,00 %
25.03.2019 02:10 4,3 C 3,9 C 3,3 C 86 % 1019,7 hPa 0,0 l/m 0 min 0 min 0 W/m 12,9 km/h (3 Bft) 97,87 %
25.03.2019 02:12 4,3 C 3,9 C 3,3 C 86 % 1019,6 hPa 0,0 l/m 0 min 0 min 0 W/m 9,7 km/h (2 Bft) 97,87 %
25.03.2019 02:14 4,3 C 3,9 C 3,3 C 86 % 1019,7 hPa 0,0 l/m 0 min 0 min 0 W/m 9,7 km/h (2 Bft) 95,74 %
25.03.2019 02:16 4,4 C 3,9 C 3,3 C 85 % 1019,7 hPa 0,0 l/m 0 min 0 min 0 W/m 6,4 km/h (2 Bft) 97,87 %
25.03.2019 02:18 4,4 C 3,9 C 3,3 C 85 % 1019,7 hPa 0,0 l/m 0 min 0 min 0 W/m 9,7 km/h (2 Bft) 95,65 %
25.03.2019 02:20 4,3 C 3,9 C 3,3 C 85 % 1019,7 hPa 0,0 l/m 0 min 0 min 0 W/m 12,9 km/h (3 Bft) 97,87 %
25.03.2019 02:22 4,3 C 3,9 C 3,3 C 85 % 1019,6 hPa 0,0 l/m 0 min 0 min 0 W/m 9,7 km/h (2 Bft) 97,87 %
25.03.2019 02:24 4,4 C 3,9 C 3,3 C 85 % 1019,6 hPa 0,0 l/m 0 min 0 min 0 W/m 9,7 km/h (2 Bft) 95,74 %
25.03.2019 02:26 4,4 C 3,9 C 3,9 C 85 % 1019,4 hPa 0,0 l/m 0 min 0 min 0 W/m 9,7 km/h (2 Bft) 95,74 %
25.03.2019 02:28 4,4 C 3,9 C 3,9 C 85 % 1019,4 hPa 0,0 l/m 0 min 0 min 0 W/m 19,3 km/h (3 Bft) 93,62 %
25.03.2019 02:30 4,4 C 3,9 C 3,9 C 85 % 1019,4 hPa 0,0 l/m 0 min 0 min 0 W/m 9,7 km/h (2 Bft) 95,65 %
25.03.2019 02:32 4,4 C 4,4 C 3,9 C 85 % 1019,5 hPa 0,0 l/m 0 min 0 min 0 W/m 16,1 km/h (3 Bft) 95,74 %
25.03.2019 02:34 4,4 C 4,4 C 3,9 C 84 % 1019,4 hPa 0,0 l/m 0 min 0 min 0 W/m 9,7 km/h (2 Bft) 97,87 %
25.03.2019 02:36 4,4 C 4,4 C 3,9 C 84 % 1019,4 hPa 0,0 l/m 0 min 0 min 0 W/m 9,7 km/h (2 Bft) 98,31 %
25.03.2019 02:38 4,4 C 4,4 C 3,9 C 84 % 1019,4 hPa 0,0 l/m 0 min 0 min 0 W/m 9,7 km/h (2 Bft) 97,30 %
25.03.2019 02:40 4,5 C 4,4 C 3,9 C 84 % 1019,3 hPa 0,0 l/m 0 min 0 min 0 W/m 9,7 km/h (2 Bft) 97,87 %
25.03.2019 02:42 4,5 C 4,4 C 3,9 C 84 % 1019,3 hPa 0,0 l/m 0 min 0 min 0 W/m 9,7 km/h (2 Bft) 97,83 %
25.03.2019 02:44 4,6 C 4,4 C 3,9 C 84 % 1019,3 hPa 0,0 l/m 0 min 0 min 0 W/m 12,9 km/h (3 Bft) 95,74 %
25.03.2019 02:46 4,6 C 4,4 C 3,9 C 84 % 1019,2 hPa 0,0 l/m 0 min 0 min 0 W/m 12,9 km/h (3 Bft) 95,74 %
25.03.2019 02:48 4,6 C 4,4 C 4,4 C 84 % 1019,2 hPa 0,0 l/m 0 min 0 min 0 W/m 9,7 km/h (2 Bft) 97,87 %
25.03.2019 02:50 4,7 C 5,0 C 4,4 C 83 % 1019,2 hPa 0,0 l/m 0 min 0 min 0 W/m 16,1 km/h (3 Bft) 97,87 %
25.03.2019 02:52 4,7 C 5,0 C 4,4 C 83 % 1019,2 hPa 0,0 l/m 0 min 0 min 0 W/m 16,1 km/h (3 Bft) 97,87 %
25.03.2019 02:54 4,8 C 5,0 C 4,4 C 83 % 1019,1 hPa 0,0 l/m 0 min 0 min 0 W/m 19,3 km/h (3 Bft) 97,83 %
25.03.2019 02:56 4,8 C 5,0 C 4,4 C 83 % 1019,0 hPa 0,0 l/m 0 min 0 min 0 W/m 9,7 km/h (2 Bft) 97,87 %
25.03.2019 02:58 4,9 C 5,0 C 4,4 C 83 % 1019,1 hPa 0,0 l/m 0 min 0 min 0 W/m 9,7 km/h (2 Bft) 97,87 %
25.03.2019 03:00 4,9 C 5,0 C 4,4 C 83 % 1019,1 hPa 0,0 l/m 0 min 0 min 0 W/m 16,1 km/h (3 Bft) 97,87 %
25.03.2019 03:02 5,0 C 5,0 C 4,4 C 83 % 1019,1 hPa 0,0 l/m 0 min 0 min 0 W/m 12,9 km/h (3 Bft) 95,74 %
25.03.2019 03:04 5,1 C 5,0 C 4,4 C 82 % 1019,1 hPa 0,0 l/m 0 min 0 min 0 W/m 12,9 km/h (3 Bft) 97,83 %
25.03.2019 03:06 5,1 C 5,0 C 4,4 C 82 % 1019,0 hPa 0,0 l/m 0 min 0 min 0 W/m 16,1 km/h (3 Bft) 95,74 %
25.03.2019 03:08 5,1 C 5,0 C 4,4 C 82 % 1019,0 hPa 0,0 l/m 0 min 0 min 0 W/m 9,7 km/h (2 Bft) 97,87 %
25.03.2019 03:10 5,2 C 5,0 C 4,4 C 82 % 1018,9 hPa 0,0 l/m 0 min 0 min 0 W/m 9,7 km/h (2 Bft) 97,87 %
25.03.2019 03:12 5,2 C 5,0 C 4,4 C 82 % 1018,9 hPa 0,0 l/m 0 min 0 min 0 W/m 12,9 km/h (3 Bft) 100,00 %
25.03.2019 03:14 5,2 C 5,0 C 4,4 C 82 % 1018,9 hPa 0,0 l/m 0 min 0 min 0 W/m 12,9 km/h (3 Bft) 97,87 %
25.03.2019 03:16 5,3 C 5,0 C 4,4 C 82 % 1019,0 hPa 0,0 l/m 0 min 0 min 0 W/m 9,7 km/h (2 Bft) 100,00 %
25.03.2019 03:18 5,3 C 5,0 C 4,4 C 82 % 1019,0 hPa 0,0 l/m 0 min 0 min 0 W/m 9,7 km/h (2 Bft) 97,87 %
25.03.2019 03:20 5,3 C 5,0 C 4,4 C 81 % 1018,9 hPa 0,0 l/m 0 min 0 min 0 W/m 16,1 km/h (3 Bft) 100,00 %
25.03.2019 03:22 5,3 C 5,0 C 4,4 C 81 % 1018,9 hPa 0,0 l/m 0 min 0 min 0 W/m 16,1 km/h (3 Bft) 97,87 %
25.03.2019 03:24 5,3 C 5,0 C 4,4 C 81 % 1018,8 hPa 0,0 l/m 0 min 0 min 0 W/m 12,9 km/h (3 Bft) 100,00 %
25.03.2019 03:26 5,4 C 5,0 C 4,4 C 81 % 1018,8 hPa 0,0 l/m 0 min 0 min 0 W/m 9,7 km/h (2 Bft) 100,00 %
25.03.2019 03:28 5,4 C 5,0 C 4,4 C 82 % 1018,8 hPa 0,0 l/m 0 min 0 min 0 W/m 9,7 km/h (2 Bft) 97,83 %
25.03.2019 03:30 5,4 C 5,0 C 4,4 C 82 % 1018,8 hPa 0,0 l/m 0 min 0 min 0 W/m 16,1 km/h (3 Bft) 100,00 %
25.03.2019 03:32 5,4 C 5,0 C 5,0 C 82 % 1018,7 hPa 0,0 l/m 0 min 0 min 0 W/m 16,1 km/h (3 Bft) 100,00 %
25.03.2019 03:34 5,5 C 5,0 C 5,0 C 82 % 1018,8 hPa 0,0 l/m 0 min 0 min 0 W/m 16,1 km/h (3 Bft) 100,00 %
25.03.2019 03:36 5,6 C 5,0 C 5,0 C 82 % 1018,7 hPa 0,0 l/m 0 min 0 min 0 W/m 9,7 km/h (2 Bft) 100,00 %
25.03.2019 03:38 5,6 C 5,0 C 5,0 C 82 % 1018,7 hPa 0,0 l/m 0 min 0 min 0 W/m 12,9 km/h (3 Bft) 100,00 %
25.03.2019 03:40 5,6 C 5,0 C 5,0 C 82 % 1018,6 hPa 0,0 l/m 0 min 0 min 0 W/m 9,7 km/h (2 Bft) 100,00 %
25.03.2019 03:42 5,6 C 5,0 C 5,0 C 82 % 1018,6 hPa 0,0 l/m 0 min 0 min 0 W/m 9,7 km/h (2 Bft) 100,00 %
25.03.2019 03:44 5,7 C 5,0 C 5,0 C 82 % 1018,6 hPa 0,0 l/m 0 min 0 min 0 W/m 16,1 km/h (3 Bft) 100,00 %
25.03.2019 03:46 5,7 C 5,0 C 5,0 C 82 % 1018,6 hPa 0,0 l/m 0 min 0 min 0 W/m 12,9 km/h (3 Bft) 97,87 %
25.03.2019 03:48 5,7 C 5,0 C 5,0 C 82 % 1018,6 hPa 0,0 l/m 0 min 0 min 0 W/m 9,7 km/h (2 Bft) 100,00 %
25.03.2019 03:50 5,7 C 5,6 C 5,0 C 82 % 1018,5 hPa 0,0 l/m 0 min 0 min 0 W/m 9,7 km/h (2 Bft) 100,00 %
25.03.2019 03:52 5,7 C 5,6 C 5,0 C 82 % 1018,5 hPa 0,0 l/m 0 min 0 min 0 W/m 16,1 km/h (3 Bft) 100,00 %
25.03.2019 03:54 5,8 C 5,6 C 5,0 C 82 % 1018,5 hPa 0,0 l/m 0 min 0 min 0 W/m 19,3 km/h (3 Bft) 100,00 %
25.03.2019 03:56 5,8 C 5,6 C 5,0 C 82 % 1018,3 hPa 0,0 l/m 0 min 0 min 0 W/m 19,3 km/h (3 Bft) 97,87 %
25.03.2019 03:58 5,8 C 5,6 C 5,0 C 82 % 1018,4 hPa 0,0 l/m 0 min 0 min 0 W/m 12,9 km/h (3 Bft) 100,00 %
25.03.2019 04:00 5,8 C 5,6 C 5,0 C 82 % 1018,4 hPa 0,0 l/m 0 min 0 min 0 W/m 22,5 km/h (4 Bft) 100,00 %
25.03.2019 04:02 5,8 C 5,6 C 5,0 C 82 % 1018,3 hPa 0,0 l/m 0 min 0 min 0 W/m 22,5 km/h (4 Bft) 97,06 %
25.03.2019 04:04 5,9 C 5,6 C 5,0 C 82 % 1018,3 hPa 0,0 l/m 0 min 0 min 0 W/m 12,9 km/h (3 Bft) 95,65 %
25.03.2019 04:06 5,9 C 5,6 C 5,0 C 82 % 1018,2 hPa 0,0 l/m 0 min 0 min 0 W/m 12,9 km/h (3 Bft) 93,62 %
25.03.2019 04:08 5,9 C 5,6 C 5,0 C 82 % 1018,2 hPa 0,0 l/m 0 min 0 min 0 W/m 16,1 km/h (3 Bft) 97,87 %
25.03.2019 04:10 5,9 C 5,6 C 5,0 C 82 % 1018,1 hPa 0,0 l/m 0 min 0 min 0 W/m 16,1 km/h (3 Bft) 97,87 %
25.03.2019 04:12 5,9 C 5,6 C 5,0 C 82 % 1018,0 hPa 0,0 l/m 0 min 0 min 0 W/m 12,9 km/h (3 Bft) 97,87 %
25.03.2019 04:14 6,0 C 5,6 C 5,0 C 82 % 1018,1 hPa 0,0 l/m 0 min 0 min 0 W/m 22,5 km/h (4 Bft) 97,83 %
25.03.2019 04:16 6,0 C 5,6 C 5,0 C 82 % 1018,0 hPa 0,0 l/m 0 min 0 min 0 W/m 9,7 km/h (2 Bft) 95,74 %
25.03.2019 04:18 6,0 C 5,6 C 5,0 C 82 % 1018,2 hPa 0,0 l/m 0 min 0 min 0 W/m 16,1 km/h (3 Bft) 95,74 %
25.03.2019 04:20 6,0 C 5,6 C 5,0 C 82 % 1018,1 hPa 0,0 l/m 0 min 0 min 0 W/m 12,9 km/h (3 Bft) 97,87 %
25.03.2019 04:22 6,0 C 5,6 C 5,0 C 82 % 1018,0 hPa 0,0 l/m 0 min 0 min 0 W/m 12,9 km/h (3 Bft) 93,62 %
25.03.2019 04:24 6,0 C 5,6 C 5,0 C 82 % 1018,1 hPa 0,0 l/m 0 min 0 min 0 W/m 12,9 km/h (3 Bft) 93,62 %
25.03.2019 04:26 6,0 C 5,6 C 5,0 C 82 % 1018,0 hPa 0,0 l/m 0 min 0 min 0 W/m 9,7 km/h (2 Bft) 95,65 %
25.03.2019 04:28 6,0 C 5,6 C 5,0 C 82 % 1018,0 hPa 0,0 l/m 0 min 0 min 0 W/m 12,9 km/h (3 Bft) 95,74 %
25.03.2019 04:30 6,0 C 5,6 C 5,0 C 82 % 1017,9 hPa 0,0 l/m 0 min 0 min 0 W/m 12,9 km/h (3 Bft) 95,74 %
25.03.2019 04:32 6,0 C 5,6 C 5,0 C 82 % 1017,9 hPa 0,0 l/m 0 min 0 min 0 W/m 16,1 km/h (3 Bft) 93,62 %
25.03.2019 04:34 6,0 C 5,6 C 5,0 C 82 % 1017,9 hPa 0,0 l/m 0 min 0 min 0 W/m 16,1 km/h (3 Bft) 95,74 %
25.03.2019 04:36 6,1 C 5,6 C 5,0 C 82 % 1017,9 hPa 0,0 l/m 0 min 0 min 0 W/m 29,0 km/h (5 Bft) 95,74 %
25.03.2019 04:38 6,1 C 5,6 C 5,0 C 83 % 1018,0 hPa 0,0 l/m 0 min 0 min 0 W/m 22,5 km/h (4 Bft) 95,65 %
25.03.2019 04:40 6,1 C 5,6 C 5,0 C 83 % 1017,9 hPa 0,0 l/m 0 min 0 min 0 W/m 22,5 km/h (4 Bft) 95,74 %
25.03.2019 04:42 6,1 C 5,6 C 5,0 C 83 % 1017,9 hPa 0,0 l/m 0 min 0 min 0 W/m 19,3 km/h (3 Bft) 95,74 %
25.03.2019 04:44 6,1 C 5,6 C 5,0 C 83 % 1017,9 hPa 0,0 l/m 0 min 0 min 0 W/m 19,3 km/h (3 Bft) 95,74 %
25.03.2019 04:46 6,1 C 5,6 C 5,0 C 83 % 1017,9 hPa 0,0 l/m 0 min 0 min 0 W/m 16,1 km/h (3 Bft) 95,74 %
25.03.2019 04:48 6,1 C 5,6 C 5,0 C 83 % 1018,0 hPa 0,0 l/m 0 min 0 min 0 W/m 16,1 km/h (3 Bft) 97,87 %
25.03.2019 04:50 6,1 C 5,6 C 5,0 C 83 % 1017,9 hPa 0,0 l/m 0 min 0 min 0 W/m 16,1 km/h (3 Bft) 95,65 %
25.03.2019 04:52 6,1 C 5,6 C 5,0 C 83 % 1017,8 hPa 0,0 l/m 0 min 0 min 0 W/m 12,9 km/h (3 Bft) 95,74 %
25.03.2019 04:54 6,1 C 5,6 C 5,0 C 83 % 1018,0 hPa 0,0 l/m 0 min 0 min 0 W/m 19,3 km/h (3 Bft) 91,49 %
25.03.2019 04:56 6,1 C 5,6 C 5,0 C 84 % 1017,9 hPa 0,0 l/m 0 min 0 min 0 W/m 12,9 km/h (3 Bft) 95,74 %
25.03.2019 04:58 6,1 C 5,6 C 5,0 C 84 % 1018,1 hPa 0,0 l/m 0 min 2 min 0 W/m 12,9 km/h (3 Bft) 93,62 %
25.03.2019 05:00 6,1 C 5,6 C 5,0 C 84 % 1018,2 hPa 0,0 l/m 0 min 2 min 0 W/m 12,9 km/h (3 Bft) 95,74 %
25.03.2019 05:02 6,1 C 5,0 C 4,4 C 84 % 1018,1 hPa 0,0 l/m 0 min 2 min 0 W/m 16,1 km/h (3 Bft) 95,65 %
25.03.2019 05:04 6,1 C 5,0 C 4,4 C 84 % 1018,0 hPa 0,0 l/m 0 min 2 min 0 W/m 12,9 km/h (3 Bft) 97,87 %
25.03.2019 05:05 6,1 C 5,0 C 4,4 C 84 % 1018,1 hPa 0,0 l/m 0 min 1 min 0 W/m 29,0 km/h (5 Bft) 100,00 %
25.03.2019 05:10 6,0 C 5,0 C 3,9 C 86 % 1018,3 hPa 0,0 l/m 0 min 5 min 0 W/m 32,2 km/h (5 Bft) 100,00 %
25.03.2019 05:12 5,9 C 4,4 C 3,9 C 87 % 1018,2 hPa 0,0 l/m 0 min 2 min 0 W/m 19,3 km/h (3 Bft) 100,00 %
25.03.2019 05:14 5,9 C 4,4 C 3,9 C 87 % 1018,4 hPa 0,0 l/m 0 min 2 min 0 W/m 25,7 km/h (4 Bft) 97,87 %
25.03.2019 05:16 5,8 C 4,4 C 3,9 C 87 % 1018,2 hPa 0,0 l/m 0 min 2 min 0 W/m 16,1 km/h (3 Bft) 100,00 %
25.03.2019 05:18 5,7 C 4,4 C 3,9 C 88 % 1018,2 hPa 0,0 l/m 0 min 2 min 0 W/m 22,5 km/h (4 Bft) 97,92 %
25.03.2019 05:20 5,7 C 4,4 C 3,9 C 88 % 1018,1 hPa 0,0 l/m 0 min 2 min 0 W/m 19,3 km/h (3 Bft) 97,87 %
25.03.2019 05:22 5,6 C 3,9 C 3,9 C 88 % 1018,1 hPa 0,0 l/m 0 min 2 min 0 W/m 29,0 km/h (5 Bft) 95,74 %
25.03.2019 05:24 5,6 C 3,9 C 3,9 C 88 % 1017,9 hPa 0,0 l/m 0 min 0 min 0 W/m 12,9 km/h (3 Bft) 97,87 %
25.03.2019 05:26 5,5 C 3,9 C 3,9 C 89 % 1018,0 hPa 0,0 l/m 0 min 0 min 0 W/m 16,1 km/h (3 Bft) 97,87 %
25.03.2019 05:28 5,5 C 4,4 C 3,9 C 89 % 1018,0 hPa 0,0 l/m 0 min 0 min 0 W/m 12,9 km/h (3 Bft) 97,83 %
25.03.2019 05:30 5,4 C 4,4 C 3,9 C 89 % 1018,1 hPa 0,0 l/m 0 min 0 min 0 W/m 16,1 km/h (3 Bft) 97,87 %
25.03.2019 05:32 5,4 C 4,4 C 3,9 C 89 % 1018,3 hPa 0,0 l/m 0 min 0 min 0 W/m 16,1 km/h (3 Bft) 97,87 %
25.03.2019 05:34 5,4 C 4,4 C 3,9 C 89 % 1018,2 hPa 0,0 l/m 0 min 2 min 0 W/m 9,7 km/h (2 Bft) 97,87 %
25.03.2019 05:36 5,4 C 4,4 C 3,9 C 90 % 1018,2 hPa 0,0 l/m 0 min 2 min 0 W/m 12,9 km/h (3 Bft) 95,74 %
25.03.2019 05:38 5,4 C 4,4 C 3,9 C 90 % 1018,5 hPa 0,0 l/m 0 min 2 min 0 W/m 19,3 km/h (3 Bft) 97,87 %
25.03.2019 05:40 5,3 C 3,9 C 3,9 C 90 % 1018,4 hPa 0,2 l/m 0 min 2 min 0 W/m 19,3 km/h (3 Bft) 97,30 %
25.03.2019 05:42 5,3 C 3,9 C 3,9 C 90 % 1018,3 hPa 0,0 l/m 0 min 2 min 0 W/m 22,5 km/h (4 Bft) 97,83 %
25.03.2019 05:44 5,3 C 3,9 C 3,3 C 90 % 1018,3 hPa 0,0 l/m 0 min 2 min 0 W/m 29,0 km/h (5 Bft) 95,74 %
25.03.2019 05:46 5,2 C 3,9 C 3,3 C 90 % 1018,4 hPa 0,0 l/m 0 min 2 min 0 W/m 38,6 km/h (5 Bft) 93,62 %
25.03.2019 05:48 5,2 C 3,9 C 3,3 C 90 % 1018,4 hPa 0,0 l/m 0 min 2 min 0 W/m 22,5 km/h (4 Bft) 97,87 %
25.03.2019 05:50 5,1 C 3,9 C 3,3 C 91 % 1018,4 hPa 0,0 l/m 0 min 2 min 0 W/m 16,1 km/h (3 Bft) 97,87 %
25.03.2019 05:52 5,1 C 3,9 C 3,3 C 91 % 1018,3 hPa 0,0 l/m 0 min 2 min 0 W/m 29,0 km/h (5 Bft) 97,87 %
25.03.2019 05:54 5,0 C 3,9 C 3,3 C 91 % 1018,2 hPa 0,0 l/m 0 min 2 min 0 W/m 12,9 km/h (3 Bft) 97,83 %
25.03.2019 05:56 4,9 C 3,9 C 3,3 C 91 % 1018,3 hPa 0,0 l/m 0 min 0 min 0 W/m 12,9 km/h (3 Bft) 95,74 %
25.03.2019 05:58 4,9 C 3,9 C 3,3 C 91 % 1018,3 hPa 0,0 l/m 0 min 2 min 0 W/m 9,7 km/h (2 Bft) 97,87 %
25.03.2019 06:00 4,9 C 3,9 C 3,3 C 91 % 1018,3 hPa 0,0 l/m 0 min 0 min 0 W/m 12,9 km/h (3 Bft) 97,87 %
25.03.2019 06:02 4,8 C 3,3 C 3,3 C 91 % 1018,3 hPa 0,0 l/m 0 min 0 min 0 W/m 6,4 km/h (2 Bft) 100,00 %
25.03.2019 06:04 4,8 C 3,3 C 3,3 C 91 % 1018,3 hPa 0,0 l/m 0 min 0 min 0 W/m 19,3 km/h (3 Bft) 97,87 %
25.03.2019 06:08 4,7 C 3,3 C 3,3 C 91 % 1018,3 hPa 0,0 l/m 0 min 0 min 0 W/m 22,5 km/h (4 Bft) 100,00 %
25.03.2019 06:10 4,7 C 3,3 C 3,3 C 91 % 1018,4 hPa 0,0 l/m 0 min 0 min 0 W/m 9,7 km/h (2 Bft) 97,96 %
25.03.2019 06:12 4,7 C 3,3 C 2,8 C 91 % 1018,4 hPa 0,0 l/m 0 min 0 min 0 W/m 9,7 km/h (2 Bft) 97,87 %
25.03.2019 06:14 4,6 C 3,3 C 2,8 C 91 % 1018,4 hPa 0,0 l/m 0 min 0 min 0 W/m 16,1 km/h (3 Bft) 100,00 %
25.03.2019 06:16 4,6 C 3,3 C 2,8 C 91 % 1018,4 hPa 0,0 l/m 0 min 0 min 0 W/m 9,7 km/h (2 Bft) 97,87 %
25.03.2019 06:18 4,6 C 3,3 C 2,8 C 91 % 1018,2 hPa 0,0 l/m 0 min 0 min 0 W/m 16,1 km/h (3 Bft) 97,87 %
25.03.2019 06:20 4,5 C 3,3 C 2,8 C 92 % 1018,3 hPa 0,0 l/m 0 min 0 min 0 W/m 12,9 km/h (3 Bft) 100,00 %
25.03.2019 06:22 4,5 C 3,3 C 2,8 C 92 % 1018,4 hPa 0,0 l/m 0 min 0 min 0 W/m 9,7 km/h (2 Bft) 95,74 %
25.03.2019 06:24 4,4 C 3,3 C 2,8 C 91 % 1018,4 hPa 0,0 l/m 0 min 0 min 0 W/m 12,9 km/h (3 Bft) 100,00 %
25.03.2019 06:26 4,4 C 2,8 C 2,8 C 91 % 1018,4 hPa 0,0 l/m 0 min 0 min 0 W/m 12,9 km/h (3 Bft) 97,87 %
25.03.2019 06:28 4,4 C 2,8 C 2,8 C 91 % 1018,4 hPa 0,0 l/m 0 min 0 min 0 W/m 9,7 km/h (2 Bft) 95,74 %
25.03.2019 06:30 4,3 C 2,8 C 2,8 C 92 % 1018,5 hPa 0,0 l/m 0 min 0 min 0 W/m 12,9 km/h (3 Bft) 100,00 %
25.03.2019 06:32 4,3 C 3,3 C 2,8 C 92 % 1018,5 hPa 0,0 l/m 0 min 0 min 3 W/m 12,9 km/h (3 Bft) 100,00 %
25.03.2019 06:34 4,3 C 3,3 C 2,8 C 92 % 1018,4 hPa 0,0 l/m 0 min 0 min 5 W/m 6,4 km/h (2 Bft) 100,00 %
25.03.2019 06:36 4,3 C 3,3 C 2,8 C 92 % 1018,4 hPa 0,0 l/m 0 min 0 min 5 W/m 9,7 km/h (2 Bft) 100,00 %
25.03.2019 06:38 4,3 C 3,3 C 2,8 C 92 % 1018,5 hPa 0,0 l/m 0 min 0 min 7 W/m 3,2 km/h (1 Bft) 100,00 %
25.03.2019 06:40 4,3 C 3,3 C 2,8 C 92 % 1018,5 hPa 0,0 l/m 0 min 0 min 9 W/m 12,9 km/h (3 Bft) 100,00 %
25.03.2019 06:42 4,3 C 3,3 C 2,8 C 92 % 1018,5 hPa 0,0 l/m 0 min 0 min 11 W/m 9,7 km/h (2 Bft) 97,87 %
25.03.2019 06:44 4,3 C 3,3 C 3,3 C 92 % 1018,5 hPa 0,0 l/m 0 min 2 min 9 W/m 9,7 km/h (2 Bft) 97,87 %
25.03.2019 06:46 4,3 C 3,3 C 3,3 C 92 % 1018,6 hPa 0,0 l/m 0 min 0 min 7 W/m 9,7 km/h (2 Bft) 100,00 %
25.03.2019 06:48 4,3 C 3,9 C 3,3 C 92 % 1018,6 hPa 0,0 l/m 0 min 0 min 7 W/m 16,1 km/h (3 Bft) 100,00 %
25.03.2019 06:50 4,3 C 3,9 C 3,3 C 92 % 1018,6 hPa 0,0 l/m 0 min 0 min 9 W/m 12,9 km/h (3 Bft) 97,96 %
25.03.2019 06:52 4,4 C 3,9 C 3,3 C 92 % 1018,5 hPa 0,0 l/m 0 min 0 min 12 W/m 12,9 km/h (3 Bft) 97,14 %
25.03.2019 06:54 4,4 C 3,9 C 3,3 C 93 % 1018,5 hPa 0,0 l/m 0 min 0 min 13 W/m 12,9 km/h (3 Bft) 96,72 %
25.03.2019 06:56 4,4 C 3,9 C 3,3 C 93 % 1018,6 hPa 0,0 l/m 0 min 0 min 12 W/m 16,1 km/h (3 Bft) 95,74 %
25.03.2019 06:58 4,4 C 3,9 C 3,3 C 93 % 1018,6 hPa 0,0 l/m 0 min 0 min 12 W/m 9,7 km/h (2 Bft) 97,87 %
25.03.2019 07:00 4,4 C 3,9 C 3,3 C 93 % 1018,5 hPa 0,0 l/m 0 min 0 min 13 W/m 9,7 km/h (2 Bft) 95,74 %
25.03.2019 07:02 4,4 C 3,3 C 3,3 C 93 % 1018,6 hPa 0,0 l/m 0 min 0 min 19 W/m 9,7 km/h (2 Bft) 97,87 %
25.03.2019 07:04 4,4 C 3,3 C 3,3 C 93 % 1018,5 hPa 0,0 l/m 0 min 0 min 17 W/m 9,7 km/h (2 Bft) 97,87 %
25.03.2019 07:06 4,4 C 3,3 C 3,3 C 93 % 1018,6 hPa 0,0 l/m 0 min 0 min 20 W/m 12,9 km/h (3 Bft) 93,48 %
25.03.2019 07:08 4,4 C 3,9 C 3,3 C 93 % 1018,5 hPa 0,0 l/m 0 min 0 min 27 W/m 9,7 km/h (2 Bft) 95,74 %
25.03.2019 07:10 4,4 C 3,9 C 3,3 C 93 % 1018,6 hPa 0,0 l/m 0 min 0 min 26 W/m 12,9 km/h (3 Bft) 98,00 %
25.03.2019 07:12 4,4 C 3,3 C 3,3 C 93 % 1018,5 hPa 0,0 l/m 0 min 0 min 23 W/m 12,9 km/h (3 Bft) 93,62 %
25.03.2019 07:14 4,4 C 3,3 C 3,3 C 93 % 1018,6 hPa 0,0 l/m 0 min 0 min 24 W/m 16,1 km/h (3 Bft) 92,68 %
25.03.2019 07:16 4,4 C 3,9 C 3,3 C 93 % 1018,6 hPa 0,0 l/m 0 min 0 min 26 W/m 12,9 km/h (3 Bft) 97,96 %
25.03.2019 07:18 4,3 C 3,9 C 3,3 C 93 % 1018,6 hPa 0,0 l/m 0 min 0 min 33 W/m 12,9 km/h (3 Bft) 95,92 %
25.03.2019 07:20 4,4 C 3,9 C 3,3 C 93 % 1018,7 hPa 0,0 l/m 0 min 0 min 56 W/m 12,9 km/h (3 Bft) 97,92 %
25.03.2019 07:22 4,4 C 3,9 C 3,3 C 93 % 1018,6 hPa 0,0 l/m 0 min 0 min 54 W/m 9,7 km/h (2 Bft) 97,87 %
25.03.2019 07:24 4,4 C 3,9 C 3,3 C 93 % 1018,6 hPa 0,0 l/m 0 min 0 min 37 W/m 16,1 km/h (3 Bft) 97,87 %
25.03.2019 07:26 4,4 C 3,9 C 3,3 C 93 % 1018,6 hPa 0,0 l/m 0 min 0 min 29 W/m 9,7 km/h (2 Bft) 95,74 %
25.03.2019 07:28 4,4 C 3,9 C 3,3 C 93 % 1018,5 hPa 0,0 l/m 0 min 0 min 35 W/m 16,1 km/h (3 Bft) 97,83 %
25.03.2019 07:30 4,5 C 4,4 C 3,3 C 93 % 1018,6 hPa 0,0 l/m 0 min 0 min 51 W/m 12,9 km/h (3 Bft) 97,87 %
25.03.2019 07:32 4,5 C 4,4 C 3,3 C 93 % 1018,6 hPa 0,0 l/m 0 min 0 min 44 W/m 9,7 km/h (2 Bft) 97,73 %
25.03.2019 07:34 4,6 C 4,4 C 3,3 C 93 % 1018,7 hPa 0,0 l/m 0 min 0 min 40 W/m 12,9 km/h (3 Bft) 97,87 %
25.03.2019 07:36 4,6 C 4,4 C 3,3 C 93 % 1018,6 hPa 0,0 l/m 0 min 0 min 37 W/m 22,5 km/h (4 Bft) 100,00 %
25.03.2019 07:38 4,6 C 4,4 C 3,3 C 93 % 1018,7 hPa 0,0 l/m 0 min 0 min 44 W/m 9,7 km/h (2 Bft) 100,00 %
25.03.2019 07:40 4,6 C 4,4 C 3,9 C 93 % 1018,7 hPa 0,0 l/m 0 min 0 min 62 W/m 16,1 km/h (3 Bft) 100,00 %
25.03.2019 07:42 4,6 C 5,0 C 3,9 C 93 % 1018,7 hPa 0,0 l/m 0 min 0 min 90 W/m 6,4 km/h (2 Bft) 100,00 %
25.03.2019 07:44 4,7 C 5,0 C 3,9 C 93 % 1018,7 hPa 0,0 l/m 2 min 0 min 100 W/m 12,9 km/h (3 Bft) 100,00 %
25.03.2019 07:46 4,7 C 5,6 C 4,4 C 93 % 1018,6 hPa 0,0 l/m 0 min 0 min 90 W/m 9,7 km/h (2 Bft) 100,00 %
25.03.2019 07:48 4,8 C 5,6 C 4,4 C 93 % 1018,5 hPa 0,0 l/m 0 min 0 min 68 W/m 9,7 km/h (2 Bft) 100,00 %
25.03.2019 07:50 4,8 C 5,6 C 3,9 C 93 % 1018,6 hPa 0,0 l/m 0 min 0 min 60 W/m 16,1 km/h (3 Bft) 97,62 %
25.03.2019 07:52 4,9 C 5,6 C 4,4 C 93 % 1018,6 hPa 0,0 l/m 0 min 0 min 71 W/m 12,9 km/h (3 Bft) 100,00 %
25.03.2019 07:54 4,9 C 5,6 C 4,4 C 93 % 1018,6 hPa 0,0 l/m 0 min 0 min 64 W/m 16,1 km/h (3 Bft) 100,00 %
25.03.2019 07:56 5,0 C 5,6 C 4,4 C 93 % 1018,6 hPa 0,0 l/m 0 min 0 min 56 W/m 12,9 km/h (3 Bft) 100,00 %
25.03.2019 07:58 5,0 C 5,6 C 4,4 C 93 % 1018,7 hPa 0,0 l/m 0 min 0 min 56 W/m 12,9 km/h (3 Bft) 100,00 %
25.03.2019 08:00 5,1 C 5,6 C 4,4 C 93 % 1018,7 hPa 0,0 l/m 0 min 0 min 79 W/m 16,1 km/h (3 Bft) 100,00 %
25.03.2019 08:02 5,1 C 6,1 C 5,0 C 93 % 1018,7 hPa 0,0 l/m 2 min 0 min 123 W/m 16,1 km/h (3 Bft) 100,00 %
25.03.2019 08:04 5,2 C 6,1 C 5,0 C 93 % 1018,7 hPa 0,0 l/m 0 min 0 min 99 W/m 19,3 km/h (3 Bft) 97,87 %
25.03.2019 08:06 5,2 C 6,1 C 5,0 C 93 % 1018,7 hPa 0,0 l/m 0 min 0 min 107 W/m 16,1 km/h (3 Bft) 97,87 %
25.03.2019 08:08 5,3 C 6,1 C 5,0 C 93 % 1018,7 hPa 0,0 l/m 0 min 0 min 89 W/m 16,1 km/h (3 Bft) 97,87 %
25.03.2019 08:10 5,3 C 6,1 C 5,0 C 93 % 1018,8 hPa 0,0 l/m 0 min 0 min 61 W/m 12,9 km/h (3 Bft) 97,87 %
25.03.2019 08:12 5,4 C 6,1 C 5,0 C 93 % 1018,7 hPa 0,0 l/m 0 min 0 min 70 W/m 12,9 km/h (3 Bft) 95,24 %
25.03.2019 08:14 5,4 C 5,6 C 5,0 C 93 % 1018,7 hPa 0,0 l/m 0 min 0 min 68 W/m 16,1 km/h (3 Bft) 93,62 %
25.03.2019 08:16 5,4 C 6,1 C 5,0 C 93 % 1018,8 hPa 0,0 l/m 0 min 0 min 86 W/m 12,9 km/h (3 Bft) 91,84 %
25.03.2019 08:18 5,5 C 6,1 C 5,0 C 92 % 1018,7 hPa 0,0 l/m 0 min 0 min 104 W/m 9,7 km/h (2 Bft) 95,92 %
25.03.2019 08:20 5,6 C 6,1 C 5,0 C 92 % 1018,7 hPa 0,0 l/m 0 min 0 min 76 W/m 12,9 km/h (3 Bft) 93,62 %
25.03.2019 08:22 5,6 C 6,1 C 5,0 C 92 % 1018,6 hPa 0,0 l/m 0 min 0 min 84 W/m 19,3 km/h (3 Bft) 95,74 %
25.03.2019 08:24 5,6 C 6,1 C 5,0 C 92 % 1018,7 hPa 0,0 l/m 0 min 0 min 82 W/m 22,5 km/h (4 Bft) 95,74 %
25.03.2019 08:26 5,6 C 6,1 C 5,0 C 91 % 1018,7 hPa 0,0 l/m 0 min 0 min 109 W/m 32,2 km/h (5 Bft) 95,65 %
25.03.2019 08:28 5,7 C 6,1 C 5,6 C 91 % 1018,7 hPa 0,0 l/m 0 min 0 min 148 W/m 16,1 km/h (3 Bft) 93,62 %
25.03.2019 08:30 5,7 C 6,1 C 5,0 C 91 % 1018,8 hPa 0,0 l/m 0 min 2 min 68 W/m 29,0 km/h (5 Bft) 95,74 %
25.03.2019 08:32 5,8 C 5,6 C 4,4 C 91 % 1018,7 hPa 0,0 l/m 0 min 2 min 58 W/m 22,5 km/h (4 Bft) 93,18 %
25.03.2019 08:34 5,8 C 5,6 C 4,4 C 91 % 1018,7 hPa 0,0 l/m 0 min 2 min 76 W/m 32,2 km/h (5 Bft) 95,83 %
25.03.2019 08:36 5,8 C 5,0 C 4,4 C 90 % 1018,8 hPa 0,0 l/m 0 min 2 min 60 W/m 35,4 km/h (5 Bft) 95,74 %
25.03.2019 08:38 5,8 C 5,0 C 3,9 C 90 % 1018,7 hPa 0,2 l/m 0 min 2 min 42 W/m 19,3 km/h (3 Bft) 95,74 %
25.03.2019 08:40 5,8 C 5,0 C 3,9 C 90 % 1018,8 hPa 0,0 l/m 0 min 2 min 60 W/m 35,4 km/h (5 Bft) 94,29 %
25.03.2019 08:42 5,8 C 5,0 C 3,9 C 90 % 1018,7 hPa 0,0 l/m 0 min 2 min 69 W/m 29,0 km/h (5 Bft) 95,74 %
25.03.2019 08:44 5,8 C 5,0 C 3,9 C 90 % 1018,6 hPa 0,0 l/m 0 min 2 min 94 W/m 19,3 km/h (3 Bft) 95,92 %
25.03.2019 08:46 5,7 C 6,7 C 3,9 C 90 % 1018,6 hPa 0,0 l/m 0 min 2 min 110 W/m 32,2 km/h (5 Bft) 93,88 %
25.03.2019 08:48 5,8 C 7,8 C 4,4 C 89 % 1018,6 hPa 0,0 l/m 2 min 2 min 182 W/m 16,1 km/h (3 Bft) 93,62 %
25.03.2019 08:50 5,8 C 8,9 C 4,4 C 89 % 1018,6 hPa 0,0 l/m 2 min 2 min 218 W/m 25,7 km/h (4 Bft) 93,62 %
25.03.2019 08:52 5,9 C 8,9 C 4,4 C 90 % 1018,6 hPa 0,0 l/m 2 min 2 min 240 W/m 25,7 km/h (4 Bft) 95,12 %
25.03.2019 08:54 5,9 C 9,4 C 4,4 C 89 % 1018,6 hPa 0,0 l/m 2 min 2 min 244 W/m 19,3 km/h (3 Bft) 97,87 %
25.03.2019 08:56 6,1 C 10,0 C 4,4 C 89 % 1018,6 hPa 0,0 l/m 2 min 0 min 237 W/m 16,1 km/h (3 Bft) 97,87 %
25.03.2019 08:58 6,1 C 10,0 C 5,0 C 89 % 1018,5 hPa 0,0 l/m 2 min 2 min 314 W/m 22,5 km/h (4 Bft) 98,00 %
25.03.2019 09:00 6,2 C 10,6 C 5,0 C 89 % 1018,5 hPa 0,0 l/m 2 min 2 min 332 W/m 22,5 km/h (4 Bft) 95,65 %
25.03.2019 09:02 6,3 C 11,1 C 5,0 C 89 % 1018,5 hPa 0,0 l/m 2 min 0 min 345 W/m 22,5 km/h (4 Bft) 97,87 %
25.03.2019 09:04 6,4 C 10,6 C 6,1 C 89 % 1018,6 hPa 0,0 l/m 2 min 0 min 352 W/m 25,7 km/h (4 Bft) 100,00 %
25.03.2019 09:06 6,5 C 10,6 C 6,7 C 88 % 1018,7 hPa 0,0 l/m 2 min 2 min 294 W/m 32,2 km/h (5 Bft) 100,00 %
25.03.2019 09:08 6,6 C 10,6 C 7,2 C 88 % 1018,7 hPa 0,0 l/m 2 min 2 min 348 W/m 29,0 km/h (5 Bft) 97,14 %
25.03.2019 09:10 6,7 C 11,1 C 7,8 C 88 % 1018,7 hPa 0,0 l/m 2 min 2 min 369 W/m 29,0 km/h (5 Bft) 97,87 %
25.03.2019 09:12 6,8 C 11,7 C 8,3 C 87 % 1018,7 hPa 0,0 l/m 2 min 2 min 394 W/m 32,2 km/h (5 Bft) 100,00 %
25.03.2019 09:14 6,9 C 11,7 C 8,3 C 86 % 1018,7 hPa 0,0 l/m 2 min 0 min 431 W/m 41,8 km/h (6 Bft) 100,00 %
25.03.2019 09:16 6,9 C 10,0 C 7,8 C 86 % 1018,7 hPa 0,0 l/m 2 min 0 min 441 W/m 29,0 km/h (5 Bft) 97,83 %
25.03.2019 09:18 7,0 C 11,1 C 8,9 C 85 % 1018,7 hPa 0,0 l/m 2 min 0 min 445 W/m 22,5 km/h (4 Bft) 100,00 %
25.03.2019 09:20 7,1 C 10,6 C 8,3 C 85 % 1018,7 hPa 0,0 l/m 2 min 0 min 314 W/m 22,5 km/h (4 Bft) 97,96 %
25.03.2019 09:22 7,2 C 11,1 C 8,9 C 85 % 1018,7 hPa 0,0 l/m 2 min 0 min 220 W/m 19,3 km/h (3 Bft) 100,00 %
25.03.2019 09:24 7,3 C 10,0 C 8,3 C 84 % 1018,8 hPa 0,0 l/m 2 min 0 min 357 W/m 38,6 km/h (5 Bft) 100,00 %
25.03.2019 09:26 7,3 C 8,9 C 7,2 C 84 % 1018,8 hPa 0,0 l/m 0 min 0 min 186 W/m 35,4 km/h (5 Bft) 100,00 %
25.03.2019 09:28 7,3 C 7,8 C 6,7 C 83 % 1018,9 hPa 0,0 l/m 0 min 0 min 163 W/m 38,6 km/h (5 Bft) 97,83 %
25.03.2019 09:30 7,3 C 7,8 C 6,7 C 82 % 1018,8 hPa 0,0 l/m 0 min 0 min 166 W/m 38,6 km/h (5 Bft) 100,00 %
25.03.2019 09:32 7,3 C 8,9 C 7,8 C 82 % 1018,8 hPa 0,0 l/m 0 min 0 min 184 W/m 32,2 km/h (5 Bft) 100,00 %
25.03.2019 09:34 7,3 C 8,9 C 7,2 C 82 % 1018,7 hPa 0,0 l/m 2 min 0 min 310 W/m 45,1 km/h (6 Bft) 100,00 %
25.03.2019 09:36 7,3 C 8,3 C 7,2 C 81 % 1018,6 hPa 0,0 l/m 0 min 0 min 165 W/m 38,6 km/h (5 Bft) 98,31 %
25.03.2019 09:38 7,3 C 10,0 C 8,3 C 80 % 1018,9 hPa 0,0 l/m 0 min 0 min 127 W/m 38,6 km/h (5 Bft) 97,14 %
25.03.2019 09:40 7,4 C 10,6 C 8,9 C 81 % 1019,1 hPa 0,0 l/m 0 min 0 min 127 W/m 41,8 km/h (6 Bft) 97,92 %
25.03.2019 09:42 7,4 C 9,4 C 8,3 C 81 % 1018,9 hPa 0,0 l/m 0 min 0 min 142 W/m 41,8 km/h (6 Bft) 97,92 %
25.03.2019 09:44 7,5 C 9,4 C 7,8 C 81 % 1019,0 hPa 0,0 l/m 0 min 0 min 201 W/m 32,2 km/h (5 Bft) 100,00 %
25.03.2019 09:46 7,5 C 9,4 C 7,8 C 81 % 1019,1 hPa 0,0 l/m 0 min 0 min 193 W/m 35,4 km/h (5 Bft) 97,87 %
25.03.2019 09:48 7,6 C 10,0 C 8,3 C 81 % 1019,2 hPa 0,0 l/m 0 min 0 min 188 W/m 32,2 km/h (5 Bft) 97,87 %
25.03.2019 09:50 7,6 C 8,9 C 7,8 C 80 % 1019,2 hPa 0,0 l/m 0 min 0 min 199 W/m 48,3 km/h (6 Bft) 97,62 %
25.03.2019 09:52 7,6 C 8,3 C 7,2 C 80 % 1019,3 hPa 0,0 l/m 0 min 0 min 182 W/m 35,4 km/h (5 Bft) 96,00 %
25.03.2019 09:54 7,6 C 7,8 C 7,2 C 79 % 1019,2 hPa 0,0 l/m 0 min 0 min 170 W/m 41,8 km/h (6 Bft) 100,00 %
25.03.2019 09:56 7,5 C 7,8 C 6,7 C 78 % 1019,3 hPa 0,0 l/m 0 min 0 min 177 W/m 38,6 km/h (5 Bft) 97,87 %
25.03.2019 09:58 7,5 C 7,8 C 7,2 C 78 % 1019,3 hPa 0,0 l/m 0 min 0 min 214 W/m 35,4 km/h (5 Bft) 95,65 %
25.03.2019 10:00 7,5 C 7,8 C 7,2 C 78 % 1019,3 hPa 0,0 l/m 0 min 0 min 189 W/m 32,2 km/h (5 Bft) 100,00 %
25.03.2019 10:02 7,4 C 7,8 C 7,2 C 78 % 1019,1 hPa 0,0 l/m 0 min 0 min 175 W/m 45,1 km/h (6 Bft) 100,00 %
25.03.2019 10:04 7,4 C 7,2 C 6,7 C 78 % 1019,2 hPa 0,0 l/m 0 min 0 min 110 W/m 38,6 km/h (5 Bft) 97,87 %
25.03.2019 10:06 7,3 C 7,2 C 6,7 C 78 % 1019,3 hPa 0,0 l/m 0 min 0 min 119 W/m 25,7 km/h (4 Bft) 98,33 %
25.03.2019 10:08 7,3 C 7,8 C 7,2 C 78 % 1019,3 hPa 0,0 l/m 0 min 0 min 207 W/m 32,2 km/h (5 Bft) 97,14 %
25.03.2019 10:10 7,3 C 10,0 C 8,9 C 79 % 1019,4 hPa 0,0 l/m 0 min 0 min 160 W/m 32,2 km/h (5 Bft) 97,92 %
25.03.2019 10:12 7,4 C 11,7 C 9,4 C 79 % 1019,4 hPa 0,0 l/m 2 min 0 min 538 W/m 29,0 km/h (5 Bft) 97,87 %
25.03.2019 10:14 7,6 C 11,1 C 10,0 C 79 % 1019,5 hPa 0,0 l/m 2 min 0 min 617 W/m 38,6 km/h (5 Bft) 97,92 %
25.03.2019 10:16 7,7 C 10,0 C 8,9 C 79 % 1019,3 hPa 0,0 l/m 2 min 0 min 334 W/m 35,4 km/h (5 Bft) 97,87 %
25.03.2019 10:18 7,7 C 9,4 C 8,3 C 79 % 1019,4 hPa 0,0 l/m 2 min 0 min 297 W/m 32,2 km/h (5 Bft) 97,87 %
25.03.2019 10:20 7,8 C 9,4 C 7,8 C 79 % 1019,4 hPa 0,0 l/m 2 min 0 min 269 W/m 29,0 km/h (5 Bft) 97,62 %
25.03.2019 10:22 7,8 C 8,3 C 7,8 C 78 % 1019,4 hPa 0,0 l/m 0 min 0 min 200 W/m 32,2 km/h (5 Bft) 97,96 %
25.03.2019 10:24 7,7 C 8,3 C 7,2 C 78 % 1019,4 hPa 0,0 l/m 0 min 0 min 140 W/m 48,3 km/h (6 Bft) 97,87 %
25.03.2019 10:26 7,7 C 10,0 C 7,8 C 78 % 1019,4 hPa 0,0 l/m 0 min 0 min 178 W/m 45,1 km/h (6 Bft) 95,92 %
25.03.2019 10:28 7,8 C 12,8 C 8,3 C 79 % 1019,4 hPa 0,0 l/m 2 min 0 min 353 W/m 25,7 km/h (4 Bft) 97,87 %
25.03.2019 10:30 8,0 C 12,8 C 8,9 C 79 % 1019,4 hPa 0,0 l/m 2 min 0 min 703 W/m 41,8 km/h (6 Bft) 97,87 %
25.03.2019 10:32 8,2 C 13,3 C 8,3 C 79 % 1019,6 hPa 0,0 l/m 2 min 0 min 672 W/m 38,6 km/h (5 Bft) 97,62 %
25.03.2019 10:34 8,3 C 14,4 C 8,9 C 80 % 1019,5 hPa 0,0 l/m 2 min 2 min 747 W/m 29,0 km/h (5 Bft) 97,92 %
25.03.2019 10:36 8,5 C 12,2 C 8,9 C 80 % 1019,5 hPa 0,0 l/m 2 min 2 min 504 W/m 38,6 km/h (5 Bft) 97,87 %
25.03.2019 10:38 8,5 C 10,6 C 8,3 C 79 % 1019,5 hPa 0,0 l/m 0 min 0 min 200 W/m 35,4 km/h (5 Bft) 97,87 %
25.03.2019 10:40 8,6 C 11,1 C 8,9 C 78 % 1019,5 hPa 0,0 l/m 2 min 0 min 283 W/m 35,4 km/h (5 Bft) 98,11 %
25.03.2019 10:42 8,5 C 11,7 C 8,3 C 77 % 1019,5 hPa 0,0 l/m 2 min 0 min 374 W/m 51,5 km/h (7 Bft) 95,74 %
25.03.2019 10:44 8,5 C 12,2 C 8,9 C 77 % 1019,5 hPa 0,0 l/m 2 min 0 min 624 W/m 35,4 km/h (5 Bft) 92,86 %
25.03.2019 10:46 8,6 C 11,1 C 8,9 C 77 % 1019,5 hPa 0,0 l/m 2 min 0 min 429 W/m 38,6 km/h (5 Bft) 93,88 %
25.03.2019 10:48 8,6 C 10,6 C 8,9 C 77 % 1019,5 hPa 0,0 l/m 2 min 0 min 314 W/m 22,5 km/h (4 Bft) 93,62 %
25.03.2019 10:50 8,7 C 11,1 C 8,9 C 77 % 1019,6 hPa 0,0 l/m 0 min 0 min 273 W/m 45,1 km/h (6 Bft) 93,88 %
25.03.2019 10:52 8,7 C 11,1 C 8,9 C 76 % 1019,6 hPa 0,0 l/m 2 min 0 min 440 W/m 29,0 km/h (5 Bft) 95,74 %
25.03.2019 10:54 8,7 C 10,0 C 8,3 C 76 % 1019,6 hPa 0,0 l/m 0 min 2 min 221 W/m 32,2 km/h (5 Bft) 93,62 %
25.03.2019 10:56 8,7 C 9,4 C 8,3 C 76 % 1019,7 hPa 0,0 l/m 0 min 0 min 208 W/m 32,2 km/h (5 Bft) 95,74 %
25.03.2019 10:58 8,6 C 8,9 C 7,8 C 77 % 1019,8 hPa 0,0 l/m 0 min 2 min 178 W/m 35,4 km/h (5 Bft) 95,74 %
25.03.2019 11:00 8,5 C 11,1 C 7,8 C 78 % 1019,7 hPa 0,0 l/m 2 min 0 min 507 W/m 35,4 km/h (5 Bft) 95,65 %
25.03.2019 11:02 8,5 C 13,3 C 8,9 C 78 % 1019,7 hPa 0,0 l/m 2 min 0 min 605 W/m 35,4 km/h (5 Bft) 95,74 %
25.03.2019 11:04 8,6 C 13,9 C 9,4 C 79 % 1019,7 hPa 0,0 l/m 2 min 0 min 773 W/m 32,2 km/h (5 Bft) 95,74 %
25.03.2019 11:06 8,7 C 12,2 C 9,4 C 79 % 1019,7 hPa 0,0 l/m 2 min 0 min 587 W/m 48,3 km/h (6 Bft) 93,62 %
25.03.2019 11:08 8,8 C 11,1 C 9,4 C 79 % 1019,7 hPa 0,0 l/m 2 min 0 min 320 W/m 48,3 km/h (6 Bft) 93,62 %
25.03.2019 11:10 8,7 C 10,0 C 8,9 C 79 % 1019,8 hPa 0,0 l/m 0 min 0 min 158 W/m 32,2 km/h (5 Bft) 95,92 %
25.03.2019 11:12 8,7 C 8,9 C 7,8 C 78 % 1019,8 hPa 0,0 l/m 0 min 0 min 93 W/m 35,4 km/h (5 Bft) 95,74 %
25.03.2019 11:14 8,6 C 8,3 C 7,8 C 77 % 1019,9 hPa 0,0 l/m 0 min 0 min 77 W/m 32,2 km/h (5 Bft) 93,62 %
25.03.2019 11:16 8,4 C 7,8 C 7,2 C 77 % 1020,1 hPa 0,0 l/m 0 min 0 min 57 W/m 35,4 km/h (5 Bft) 93,62 %
25.03.2019 11:18 8,3 C 7,2 C 6,1 C 77 % 1020,1 hPa 0,0 l/m 0 min 2 min 28 W/m 51,5 km/h (7 Bft) 93,62 %
25.03.2019 11:20 8,1 C 6,1 C 5,0 C 78 % 1020,3 hPa 0,0 l/m 0 min 2 min 38 W/m 41,8 km/h (6 Bft) 95,65 %
25.03.2019 11:22 7,8 C 6,1 C 5,0 C 80 % 1020,4 hPa 0,2 l/m 0 min 2 min 120 W/m 38,6 km/h (5 Bft) 93,02 %
25.03.2019 11:24 7,6 C 7,2 C 5,6 C 81 % 1020,3 hPa 0,0 l/m 0 min 2 min 241 W/m 48,3 km/h (6 Bft) 93,62 %
25.03.2019 11:26 7,5 C 8,9 C 5,6 C 82 % 1020,3 hPa 0,0 l/m 0 min 2 min 232 W/m 41,8 km/h (6 Bft) 93,62 %
25.03.2019 11:28 7,4 C 12,2 C 6,1 C 83 % 1020,3 hPa 0,0 l/m 2 min 2 min 657 W/m 29,0 km/h (5 Bft) 95,74 %
25.03.2019 11:30 7,5 C 13,9 C 6,1 C 84 % 1020,4 hPa 0,0 l/m 2 min 0 min 668 W/m 38,6 km/h (5 Bft) 97,92 %
25.03.2019 11:32 7,6 C 14,4 C 6,1 C 84 % 1020,4 hPa 0,0 l/m 2 min 0 min 700 W/m 32,2 km/h (5 Bft) 96,00 %
25.03.2019 11:34 7,7 C 14,4 C 6,1 C 84 % 1020,4 hPa 0,0 l/m 2 min 0 min 693 W/m 45,1 km/h (6 Bft) 97,83 %
25.03.2019 11:36 7,7 C 15,0 C 6,7 C 83 % 1020,4 hPa 0,0 l/m 2 min 0 min 687 W/m 38,6 km/h (5 Bft) 97,87 %
25.03.2019 11:38 7,8 C 15,0 C 6,7 C 83 % 1020,4 hPa 0,0 l/m 2 min 0 min 688 W/m 32,2 km/h (5 Bft) 97,62 %
25.03.2019 11:40 7,9 C 14,4 C 6,7 C 83 % 1020,3 hPa 0,0 l/m 2 min 0 min 691 W/m 35,4 km/h (5 Bft) 97,67 %
25.03.2019 11:42 8,0 C 15,0 C 6,7 C 82 % 1020,4 hPa 0,0 l/m 2 min 0 min 696 W/m 25,7 km/h (4 Bft) 97,62 %
25.03.2019 11:44 8,1 C 15,0 C 7,2 C 82 % 1020,3 hPa 0,0 l/m 2 min 0 min 700 W/m 19,3 km/h (3 Bft) 97,87 %
25.03.2019 11:46 8,2 C 15,6 C 7,8 C 82 % 1020,4 hPa 0,0 l/m 2 min 0 min 717 W/m 29,0 km/h (5 Bft) 95,83 %
25.03.2019 11:48 8,4 C 16,7 C 8,3 C 81 % 1020,5 hPa 0,0 l/m 2 min 0 min 734 W/m 29,0 km/h (5 Bft) 97,96 %
25.03.2019 11:50 8,6 C 16,7 C 8,3 C 81 % 1020,4 hPa 0,0 l/m 2 min 0 min 710 W/m 45,1 km/h (6 Bft) 95,83 %
25.03.2019 11:52 8,7 C 16,1 C 8,3 C 81 % 1020,3 hPa 0,0 l/m 2 min 0 min 721 W/m 35,4 km/h (5 Bft) 97,87 %
25.03.2019 11:54 8,8 C 16,1 C 8,3 C 80 % 1020,3 hPa 0,0 l/m 2 min 0 min 718 W/m 25,7 km/h (4 Bft) 97,87 %
25.03.2019 11:56 8,9 C 16,1 C 8,3 C 80 % 1020,4 hPa 0,0 l/m 2 min 0 min 727 W/m 19,3 km/h (3 Bft) 95,74 %
25.03.2019 11:58 9,1 C 16,7 C 8,9 C 80 % 1020,3 hPa 0,0 l/m 2 min 0 min 733 W/m 25,7 km/h (4 Bft) 100,00 %
25.03.2019 12:00 9,2 C 17,2 C 8,9 C 80 % 1020,2 hPa 0,0 l/m 2 min 0 min 732 W/m 22,5 km/h (4 Bft) 95,74 %
25.03.2019 12:02 9,4 C 17,2 C 8,9 C 79 % 1020,1 hPa 0,0 l/m 2 min 0 min 750 W/m 22,5 km/h (4 Bft) 98,00 %
25.03.2019 12:04 9,6 C 17,8 C 9,4 C 80 % 1020,1 hPa 0,0 l/m 2 min 0 min 771 W/m 22,5 km/h (4 Bft) 95,74 %
25.03.2019 12:08 9,9 C 18,3 C 10,6 C 80 % 1020,0 hPa 0,0 l/m 4 min 0 min 878 W/m 29,0 km/h (5 Bft) 100,00 %
25.03.2019 12:10 10,1 C 15,0 C 10,6 C 78 % 1020,0 hPa 0,0 l/m 2 min 0 min 657 W/m 29,0 km/h (5 Bft) 100,00 %
25.03.2019 12:12 10,1 C 12,8 C 10,0 C 77 % 1020,0 hPa 0,0 l/m 0 min 0 min 291 W/m 22,5 km/h (4 Bft) 97,87 %
25.03.2019 12:14 10,0 C 11,7 C 9,4 C 76 % 1020,0 hPa 0,0 l/m 0 min 0 min 234 W/m 19,3 km/h (3 Bft) 100,00 %
25.03.2019 12:16 9,9 C 10,6 C 9,4 C 75 % 1020,1 hPa 0,0 l/m 0 min 0 min 174 W/m 29,0 km/h (5 Bft) 100,00 %
25.03.2019 12:18 9,8 C 9,4 C 8,9 C 75 % 1020,0 hPa 0,0 l/m 0 min 0 min 98 W/m 32,2 km/h (5 Bft) 100,00 %
25.03.2019 12:20 9,7 C 8,9 C 8,3 C 75 % 1020,1 hPa 0,0 l/m 0 min 0 min 60 W/m 29,0 km/h (5 Bft) 97,87 %
25.03.2019 12:22 9,4 C 7,8 C 7,2 C 75 % 1020,3 hPa 0,0 l/m 0 min 2 min 42 W/m 35,4 km/h (5 Bft) 100,00 %
25.03.2019 12:24 9,2 C 7,2 C 6,7 C 75 % 1020,6 hPa 0,0 l/m 0 min 2 min 41 W/m 41,8 km/h (6 Bft) 100,00 %
25.03.2019 12:26 8,9 C 6,7 C 5,6 C 77 % 1020,7 hPa 0,2 l/m 0 min 2 min 66 W/m 45,1 km/h (6 Bft) 100,00 %
25.03.2019 12:28 8,6 C 6,1 C 5,0 C 78 % 1020,6 hPa 0,0 l/m 0 min 2 min 90 W/m 38,6 km/h (5 Bft) 100,00 %
25.03.2019 12:30 8,3 C 9,4 C 6,1 C 79 % 1020,4 hPa 0,0 l/m 0 min 2 min 271 W/m 35,4 km/h (5 Bft) 100,00 %
25.03.2019 12:32 8,2 C 11,7 C 8,3 C 81 % 1020,3 hPa 0,0 l/m 2 min 0 min 740 W/m 25,7 km/h (4 Bft) 97,87 %
25.03.2019 12:34 8,2 C 13,9 C 10,6 C 82 % 1020,4 hPa 0,0 l/m 2 min 0 min 767 W/m 25,7 km/h (4 Bft) 100,00 %
25.03.2019 12:36 8,3 C 15,6 C 11,7 C 84 % 1020,5 hPa 0,0 l/m 2 min 0 min 779 W/m 22,5 km/h (4 Bft) 100,00 %
25.03.2019 12:38 8,4 C 13,3 C 10,0 C 85 % 1020,6 hPa 0,0 l/m 2 min 0 min 786 W/m 35,4 km/h (5 Bft) 100,00 %
25.03.2019 12:40 8,4 C 10,6 C 7,8 C 84 % 1020,6 hPa 0,0 l/m 0 min 2 min 106 W/m 25,7 km/h (4 Bft) 97,96 %
25.03.2019 12:42 8,3 C 8,9 C 7,2 C 84 % 1020,7 hPa 0,0 l/m 0 min 2 min 48 W/m 51,5 km/h (7 Bft) 100,00 %
25.03.2019 12:44 8,1 C 6,7 C 5,6 C 84 % 1020,9 hPa 0,4 l/m 0 min 2 min 30 W/m 51,5 km/h (7 Bft) 100,00 %
25.03.2019 12:46 7,8 C 5,6 C 5,0 C 83 % 1020,7 hPa 0,0 l/m 0 min 2 min 59 W/m 51,5 km/h (7 Bft) 97,83 %
25.03.2019 12:48 7,6 C 8,3 C 6,7 C 83 % 1020,7 hPa 0,2 l/m 0 min 2 min 120 W/m 45,1 km/h (6 Bft) 95,74 %
25.03.2019 12:50 7,4 C 10,0 C 7,8 C 84 % 1020,7 hPa 0,0 l/m 0 min 0 min 120 W/m 22,5 km/h (4 Bft) 100,00 %
25.03.2019 12:52 7,4 C 11,1 C 8,9 C 85 % 1020,6 hPa 0,0 l/m 0 min 0 min 120 W/m 25,7 km/h (4 Bft) 100,00 %
25.03.2019 12:54 7,4 C 12,2 C 9,4 C 86 % 1020,5 hPa 0,0 l/m 2 min 0 min 391 W/m 22,5 km/h (4 Bft) 100,00 %
25.03.2019 12:56 7,5 C 13,9 C 10,6 C 87 % 1020,5 hPa 0,0 l/m 2 min 0 min 672 W/m 45,1 km/h (6 Bft) 100,00 %
25.03.2019 12:58 7,7 C 13,9 C 11,7 C 87 % 1020,5 hPa 0,0 l/m 2 min 0 min 692 W/m 29,0 km/h (5 Bft) 100,00 %
25.03.2019 13:00 7,8 C 13,9 C 11,7 C 87 % 1020,6 hPa 0,0 l/m 2 min 0 min 688 W/m 41,8 km/h (6 Bft) 100,00 %
25.03.2019 13:02 7,9 C 14,4 C 11,7 C 87 % 1020,6 hPa 0,0 l/m 2 min 0 min 693 W/m 41,8 km/h (6 Bft) 100,00 %
25.03.2019 13:04 8,1 C 14,4 C 11,7 C 87 % 1020,5 hPa 0,0 l/m 2 min 0 min 698 W/m 45,1 km/h (6 Bft) 100,00 %
25.03.2019 13:06 8,3 C 14,4 C 12,2 C 86 % 1020,5 hPa 0,0 l/m 2 min 0 min 707 W/m 48,3 km/h (6 Bft) 100,00 %
25.03.2019 13:08 8,4 C 14,4 C 12,2 C 85 % 1020,5 hPa 0,0 l/m 2 min 0 min 719 W/m 35,4 km/h (5 Bft) 97,14 %
25.03.2019 13:10 8,6 C 13,9 C 12,8 C 84 % 1020,5 hPa 0,0 l/m 2 min 0 min 788 W/m 51,5 km/h (7 Bft) 100,00 %
25.03.2019 13:12 8,7 C 13,3 C 12,2 C 82 % 1020,4 hPa 0,0 l/m 2 min 0 min 800 W/m 45,1 km/h (6 Bft) 100,00 %
25.03.2019 13:14 8,8 C 14,4 C 13,9 C 82 % 1020,4 hPa 0,0 l/m 2 min 0 min 758 W/m 45,1 km/h (6 Bft) 100,00 %
25.03.2019 13:16 8,9 C 13,9 C 13,9 C 82 % 1020,5 hPa 0,0 l/m 2 min 0 min 814 W/m 41,8 km/h (6 Bft) 95,24 %
25.03.2019 13:18 9,1 C 13,9 C 13,9 C 81 % 1020,5 hPa 0,0 l/m 2 min 0 min 814 W/m 51,5 km/h (7 Bft) 97,96 %
25.03.2019 13:20 9,2 C 11,7 C 12,2 C 79 % 1020,4 hPa 0,0 l/m 2 min 0 min 406 W/m 38,6 km/h (5 Bft) 97,92 %
25.03.2019 13:22 9,2 C 10,6 C 10,6 C 78 % 1020,5 hPa 0,0 l/m 0 min 0 min 136 W/m 25,7 km/h (4 Bft) 93,75 %
25.03.2019 13:24 9,2 C 9,4 C 9,4 C 78 % 1020,8 hPa 0,0 l/m 0 min 2 min 50 W/m 35,4 km/h (5 Bft) 97,87 %
25.03.2019 13:26 8,9 C 6,7 C 6,1 C 78 % 1021,0 hPa 0,2 l/m 0 min 2 min 23 W/m 57,9 km/h (7 Bft) 93,62 %
25.03.2019 13:28 8,6 C 5,6 C 5,0 C 79 % 1021,1 hPa 0,2 l/m 0 min 2 min 33 W/m 57,9 km/h (7 Bft) 97,67 %
25.03.2019 13:30 8,1 C 5,6 C 5,0 C 80 % 1021,2 hPa 0,0 l/m 0 min 2 min 92 W/m 54,7 km/h (7 Bft) 97,92 %
25.03.2019 13:32 7,7 C 6,1 C 5,0 C 81 % 1021,0 hPa 0,0 l/m 0 min 2 min 193 W/m 41,8 km/h (6 Bft) 96,00 %
25.03.2019 13:34 7,5 C 6,7 C 5,6 C 83 % 1020,9 hPa 0,0 l/m 0 min 2 min 243 W/m 25,7 km/h (4 Bft) 97,87 %
25.03.2019 13:36 7,3 C 6,7 C 5,6 C 84 % 1020,8 hPa 0,2 l/m 0 min 2 min 203 W/m 45,1 km/h (6 Bft) 97,87 %
25.03.2019 13:38 7,1 C 6,7 C 5,6 C 85 % 1020,8 hPa 0,0 l/m 0 min 2 min 232 W/m 41,8 km/h (6 Bft) 97,87 %
25.03.2019 13:40 6,9 C 6,7 C 5,0 C 85 % 1020,7 hPa 0,0 l/m 0 min 2 min 216 W/m 38,6 km/h (5 Bft) 97,92 %
25.03.2019 13:42 6,8 C 8,3 C 6,1 C 86 % 1020,8 hPa 0,0 l/m 0 min 2 min 292 W/m 32,2 km/h (5 Bft) 93,48 %
25.03.2019 13:44 6,8 C 10,0 C 7,2 C 87 % 1020,8 hPa 0,0 l/m 2 min 2 min 463 W/m 35,4 km/h (5 Bft) 97,87 %
25.03.2019 13:46 6,9 C 10,0 C 7,2 C 88 % 1020,8 hPa 0,0 l/m 2 min 2 min 548 W/m 29,0 km/h (5 Bft) 97,87 %
25.03.2019 13:48 6,9 C 10,0 C 7,2 C 89 % 1020,8 hPa 0,0 l/m 2 min 2 min 356 W/m 45,1 km/h (6 Bft) 97,87 %
25.03.2019 13:50 7,1 C 10,6 C 7,8 C 89 % 1020,8 hPa 0,0 l/m 2 min 2 min 315 W/m 38,6 km/h (5 Bft) 97,87 %
25.03.2019 13:52 7,2 C 10,6 C 7,8 C 89 % 1020,8 hPa 0,0 l/m 2 min 0 min 315 W/m 25,7 km/h (4 Bft) 95,74 %
25.03.2019 13:54 7,4 C 11,1 C 7,8 C 90 % 1020,8 hPa 0,0 l/m 2 min 0 min 483 W/m 25,7 km/h (4 Bft) 97,83 %
25.03.2019 13:56 7,5 C 13,3 C 8,3 C 90 % 1020,8 hPa 0,0 l/m 2 min 0 min 456 W/m 22,5 km/h (4 Bft) 95,35 %
25.03.2019 13:58 7,7 C 14,4 C 7,8 C 91 % 1020,7 hPa 0,0 l/m 2 min 0 min 687 W/m 29,0 km/h (5 Bft) 98,00 %
25.03.2019 14:00 7,9 C 14,4 C 7,8 C 91 % 1020,6 hPa 0,0 l/m 2 min 0 min 675 W/m 22,5 km/h (4 Bft) 95,74 %
25.03.2019 14:02 8,0 C 15,0 C 7,8 C 90 % 1020,6 hPa 0,0 l/m 2 min 0 min 686 W/m 32,2 km/h (5 Bft) 95,74 %
25.03.2019 14:04 8,2 C 14,4 C 8,3 C 90 % 1020,6 hPa 0,0 l/m 2 min 0 min 712 W/m 29,0 km/h (5 Bft) 97,83 %
25.03.2019 14:06 8,3 C 13,3 C 8,3 C 90 % 1020,5 hPa 0,0 l/m 2 min 0 min 768 W/m 38,6 km/h (5 Bft) 97,87 %
25.03.2019 14:08 8,4 C 13,3 C 8,3 C 89 % 1020,6 hPa 0,0 l/m 2 min 0 min 807 W/m 22,5 km/h (4 Bft) 100,00 %
25.03.2019 14:10 8,5 C 12,2 C 8,3 C 88 % 1020,5 hPa 0,0 l/m 2 min 0 min 692 W/m 32,2 km/h (5 Bft) 97,87 %
25.03.2019 14:12 8,5 C 10,6 C 7,8 C 87 % 1020,5 hPa 0,0 l/m 2 min 0 min 311 W/m 32,2 km/h (5 Bft) 100,00 %
25.03.2019 14:14 8,5 C 9,4 C 7,8 C 87 % 1020,5 hPa 0,0 l/m 0 min 0 min 160 W/m 41,8 km/h (6 Bft) 95,74 %
25.03.2019 14:16 8,4 C 8,9 C 7,8 C 85 % 1020,5 hPa 0,0 l/m 0 min 0 min 195 W/m 32,2 km/h (5 Bft) 97,87 %
25.03.2019 14:18 8,4 C 8,9 C 7,8 C 85 % 1020,6 hPa 0,0 l/m 0 min 0 min 219 W/m 22,5 km/h (4 Bft) 91,30 %
25.03.2019 14:20 8,3 C 8,3 C 7,8 C 85 % 1020,5 hPa 0,0 l/m 0 min 0 min 173 W/m 32,2 km/h (5 Bft) 97,87 %
25.03.2019 14:22 8,3 C 8,3 C 7,2 C 85 % 1020,4 hPa 0,0 l/m 0 min 2 min 120 W/m 32,2 km/h (5 Bft) 95,74 %
25.03.2019 14:24 8,3 C 8,9 C 7,2 C 85 % 1020,5 hPa 0,0 l/m 0 min 2 min 152 W/m 25,7 km/h (4 Bft) 97,67 %
25.03.2019 14:26 8,2 C 8,9 C 7,2 C 84 % 1020,5 hPa 0,0 l/m 0 min 2 min 149 W/m 32,2 km/h (5 Bft) 97,96 %
25.03.2019 14:28 8,2 C 8,3 C 7,2 C 85 % 1020,4 hPa 0,0 l/m 0 min 0 min 157 W/m 41,8 km/h (6 Bft) 97,92 %
25.03.2019 14:30 8,2 C 10,0 C 7,8 C 84 % 1020,3 hPa 0,0 l/m 0 min 2 min 266 W/m 32,2 km/h (5 Bft) 97,87 %
25.03.2019 14:32 8,3 C 10,0 C 8,3 C 85 % 1020,3 hPa 0,0 l/m 2 min 0 min 348 W/m 25,7 km/h (4 Bft) 95,74 %
25.03.2019 14:34 8,4 C 9,4 C 8,3 C 84 % 1020,2 hPa 0,0 l/m 0 min 0 min 255 W/m 32,2 km/h (5 Bft) 97,62 %
25.03.2019 14:36 8,4 C 9,4 C 8,3 C 84 % 1020,2 hPa 0,0 l/m 0 min 0 min 230 W/m 29,0 km/h (5 Bft) 97,87 %
25.03.2019 14:38 8,5 C 9,4 C 8,3 C 84 % 1020,1 hPa 0,0 l/m 0 min 0 min 219 W/m 32,2 km/h (5 Bft) 95,92 %
25.03.2019 14:40 8,5 C 8,9 C 7,8 C 83 % 1020,1 hPa 0,0 l/m 0 min 0 min 174 W/m 48,3 km/h (6 Bft) 97,92 %
25.03.2019 14:42 8,6 C 8,9 C 7,8 C 83 % 1020,1 hPa 0,0 l/m 0 min 2 min 118 W/m 32,2 km/h (5 Bft) 97,87 %
25.03.2019 14:44 8,6 C 8,9 C 8,3 C 83 % 1020,2 hPa 0,0 l/m 0 min 0 min 210 W/m 25,7 km/h (4 Bft) 97,87 %
25.03.2019 14:46 8,6 C 8,9 C 7,8 C 83 % 1020,1 hPa 0,0 l/m 0 min 2 min 188 W/m 25,7 km/h (4 Bft) 95,74 %
25.03.2019 14:48 8,6 C 8,3 C 7,2 C 83 % 1020,2 hPa 0,0 l/m 0 min 2 min 156 W/m 51,5 km/h (7 Bft) 97,87 %
25.03.2019 14:50 8,6 C 8,3 C 7,2 C 83 % 1020,2 hPa 0,0 l/m 0 min 2 min 217 W/m 32,2 km/h (5 Bft) 97,83 %
25.03.2019 14:52 8,6 C 8,3 C 7,2 C 83 % 1020,1 hPa 0,0 l/m 0 min 2 min 169 W/m 35,4 km/h (5 Bft) 97,96 %
25.03.2019 14:54 8,6 C 8,9 C 7,2 C 83 % 1020,2 hPa 0,0 l/m 0 min 2 min 179 W/m 25,7 km/h (4 Bft) 95,65 %
25.03.2019 14:56 8,6 C 8,3 C 7,2 C 83 % 1020,3 hPa 0,0 l/m 0 min 2 min 156 W/m 35,4 km/h (5 Bft) 97,87 %
25.03.2019 14:58 8,6 C 8,9 C 7,2 C 83 % 1020,3 hPa 0,0 l/m 0 min 2 min 154 W/m 25,7 km/h (4 Bft) 97,87 %
25.03.2019 15:00 8,5 C 10,6 C 7,8 C 83 % 1020,3 hPa 0,0 l/m 0 min 2 min 191 W/m 35,4 km/h (5 Bft) 95,74 %
25.03.2019 15:02 8,7 C 12,8 C 8,9 C 83 % 1020,3 hPa 0,0 l/m 2 min 2 min 679 W/m 32,2 km/h (5 Bft) 93,62 %
25.03.2019 15:04 8,8 C 12,8 C 9,4 C 84 % 1020,2 hPa 0,0 l/m 2 min 2 min 543 W/m 29,0 km/h (5 Bft) 97,87 %
25.03.2019 15:06 9,0 C 12,2 C 9,4 C 83 % 1020,1 hPa 0,0 l/m 2 min 2 min 285 W/m 38,6 km/h (5 Bft) 97,83 %
25.03.2019 15:08 9,1 C 12,2 C 9,4 C 82 % 1020,1 hPa 0,0 l/m 2 min 2 min 442 W/m 35,4 km/h (5 Bft) 97,62 %
25.03.2019 15:10 9,2 C 11,1 C 9,4 C 81 % 1020,1 hPa 0,0 l/m 2 min 2 min 371 W/m 41,8 km/h (6 Bft) 95,92 %
25.03.2019 15:12 9,3 C 10,6 C 9,4 C 80 % 1020,1 hPa 0,0 l/m 2 min 2 min 287 W/m 38,6 km/h (5 Bft) 98,00 %
25.03.2019 15:14 9,3 C 9,4 C 8,9 C 79 % 1020,1 hPa 0,0 l/m 0 min 0 min 119 W/m 48,3 km/h (6 Bft) 97,83 %
25.03.2019 15:16 9,3 C 8,9 C 8,3 C 79 % 1020,2 hPa 0,0 l/m 0 min 2 min 93 W/m 45,1 km/h (6 Bft) 95,74 %
25.03.2019 15:18 9,2 C 8,9 C 7,8 C 79 % 1020,3 hPa 0,0 l/m 0 min 2 min 123 W/m 35,4 km/h (5 Bft) 97,87 %
25.03.2019 15:20 9,2 C 8,3 C 7,8 C 79 % 1020,4 hPa 0,0 l/m 0 min 2 min 136 W/m 61,2 km/h (7 Bft) 95,74 %
25.03.2019 15:22 9,1 C 10,6 C 8,3 C 78 % 1020,4 hPa 0,0 l/m 0 min 2 min 146 W/m 38,6 km/h (5 Bft) 97,87 %
25.03.2019 15:24 9,2 C 12,2 C 9,4 C 79 % 1020,3 hPa 0,0 l/m 2 min 2 min 507 W/m 38,6 km/h (5 Bft) 97,87 %
25.03.2019 15:26 9,3 C 12,8 C 9,4 C 79 % 1020,2 hPa 0,0 l/m 2 min 2 min 490 W/m 64,4 km/h (8 Bft) 97,87 %
25.03.2019 15:28 9,5 C 13,3 C 10,0 C 79 % 1020,4 hPa 0,0 l/m 2 min 0 min 689 W/m 41,8 km/h (6 Bft) 95,65 %
25.03.2019 15:30 9,7 C 13,9 C 10,0 C 79 % 1020,2 hPa 0,0 l/m 2 min 0 min 496 W/m 51,5 km/h (7 Bft) 97,87 %
25.03.2019 15:32 9,9 C 14,4 C 10,6 C 79 % 1020,3 hPa 0,0 l/m 2 min 0 min 492 W/m 41,8 km/h (6 Bft) 97,87 %
25.03.2019 15:34 10,0 C 12,8 C 10,6 C 78 % 1020,3 hPa 0,0 l/m 2 min 0 min 488 W/m 32,2 km/h (5 Bft) 97,87 %
25.03.2019 15:36 10,1 C 11,7 C 10,0 C 77 % 1020,3 hPa 0,0 l/m 2 min 2 min 271 W/m 35,4 km/h (5 Bft) 97,87 %
25.03.2019 15:38 10,0 C 10,6 C 8,9 C 77 % 1020,5 hPa 0,0 l/m 0 min 2 min 165 W/m 48,3 km/h (6 Bft) 97,87 %
25.03.2019 15:40 9,9 C 9,4 C 7,8 C 78 % 1020,6 hPa 0,0 l/m 0 min 2 min 144 W/m 45,1 km/h (6 Bft) 97,62 %
25.03.2019 15:42 9,8 C 9,4 C 7,8 C 78 % 1020,6 hPa 0,0 l/m 0 min 2 min 144 W/m 32,2 km/h (5 Bft) 98,00 %
25.03.2019 15:44 9,8 C 10,6 C 8,3 C 80 % 1020,5 hPa 0,0 l/m 0 min 2 min 207 W/m 25,7 km/h (4 Bft) 97,87 %
25.03.2019 15:46 9,7 C 10,0 C 7,8 C 81 % 1020,6 hPa 0,0 l/m 0 min 2 min 152 W/m 22,5 km/h (4 Bft) 97,87 %
25.03.2019 15:48 9,7 C 9,4 C 7,8 C 81 % 1020,5 hPa 0,0 l/m 0 min 2 min 84 W/m 22,5 km/h (4 Bft) 95,65 %
25.03.2019 15:50 9,5 C 8,9 C 7,8 C 80 % 1020,6 hPa 0,0 l/m 0 min 2 min 121 W/m 38,6 km/h (5 Bft) 95,92 %
25.03.2019 15:52 9,4 C 8,9 C 7,8 C 80 % 1020,6 hPa 0,0 l/m 0 min 2 min 106 W/m 32,2 km/h (5 Bft) 95,65 %
25.03.2019 15:54 9,2 C 8,3 C 7,8 C 79 % 1020,6 hPa 0,0 l/m 0 min 2 min 77 W/m 48,3 km/h (6 Bft) 95,74 %
25.03.2019 15:56 9,1 C 10,0 C 8,3 C 78 % 1020,6 hPa 0,0 l/m 2 min 2 min 215 W/m 48,3 km/h (6 Bft) 97,87 %
25.03.2019 15:58 9,1 C 10,0 C 8,9 C 78 % 1020,6 hPa 0,0 l/m 2 min 2 min 495 W/m 61,2 km/h (7 Bft) 97,73 %
25.03.2019 16:00 9,0 C 8,9 C 8,3 C 78 % 1020,7 hPa 0,0 l/m 0 min 2 min 72 W/m 45,1 km/h (6 Bft) 97,87 %
25.03.2019 16:02 8,9 C 8,3 C 7,8 C 79 % 1020,7 hPa 0,0 l/m 0 min 2 min 43 W/m 38,6 km/h (5 Bft) 93,48 %
25.03.2019 16:04 8,8 C 7,8 C 7,2 C 79 % 1020,7 hPa 0,0 l/m 0 min 2 min 44 W/m 54,7 km/h (7 Bft) 95,74 %
25.03.2019 16:06 8,7 C 8,3 C 7,2 C 79 % 1020,7 hPa 0,0 l/m 0 min 2 min 113 W/m 41,8 km/h (6 Bft) 95,74 %
25.03.2019 16:08 8,7 C 10,0 C 7,8 C 80 % 1020,8 hPa 0,0 l/m 0 min 2 min 146 W/m 48,3 km/h (6 Bft) 95,74 %
25.03.2019 16:10 8,7 C 10,6 C 8,3 C 80 % 1020,7 hPa 0,0 l/m 2 min 0 min 406 W/m 38,6 km/h (5 Bft) 95,74 %
25.03.2019 16:12 8,8 C 11,1 C 8,9 C 81 % 1020,9 hPa 0,0 l/m 2 min 0 min 420 W/m 41,8 km/h (6 Bft) 95,65 %
25.03.2019 16:14 8,9 C 11,1 C 8,9 C 80 % 1020,8 hPa 0,0 l/m 2 min 0 min 419 W/m 45,1 km/h (6 Bft) 97,96 %
25.03.2019 16:16 8,9 C 11,7 C 9,4 C 80 % 1020,8 hPa 0,0 l/m 2 min 0 min 415 W/m 51,5 km/h (7 Bft) 97,92 %
25.03.2019 16:18 9,1 C 11,7 C 9,4 C 80 % 1020,9 hPa 0,0 l/m 2 min 0 min 440 W/m 41,8 km/h (6 Bft) 95,74 %
25.03.2019 16:20 9,2 C 12,2 C 10,0 C 79 % 1020,9 hPa 0,0 l/m 2 min 0 min 473 W/m 48,3 km/h (6 Bft) 97,87 %
25.03.2019 16:22 9,3 C 11,1 C 9,4 C 78 % 1020,8 hPa 0,0 l/m 2 min 0 min 372 W/m 64,4 km/h (8 Bft) 97,87 %
25.03.2019 16:24 9,3 C 10,0 C 8,9 C 76 % 1020,9 hPa 0,0 l/m 0 min 0 min 154 W/m 41,8 km/h (6 Bft) 97,87 %
25.03.2019 16:26 9,2 C 9,4 C 8,3 C 75 % 1020,8 hPa 0,0 l/m 0 min 0 min 129 W/m 51,5 km/h (7 Bft) 97,62 %
25.03.2019 16:28 9,2 C 9,4 C 8,3 C 75 % 1021,0 hPa 0,0 l/m 0 min 0 min 173 W/m 41,8 km/h (6 Bft) 97,87 %
25.03.2019 16:30 9,1 C 9,4 C 8,9 C 75 % 1021,0 hPa 0,0 l/m 2 min 0 min 224 W/m 48,3 km/h (6 Bft) 97,96 %
25.03.2019 16:32 9,1 C 9,4 C 8,9 C 76 % 1021,1 hPa 0,0 l/m 0 min 0 min 154 W/m 48,3 km/h (6 Bft) 93,88 %
25.03.2019 16:34 9,1 C 8,9 C 8,3 C 76 % 1021,1 hPa 0,0 l/m 0 min 0 min 107 W/m 51,5 km/h (7 Bft) 97,87 %
25.03.2019 16:36 9,1 C 8,3 C 7,8 C 76 % 1021,1 hPa 0,0 l/m 0 min 2 min 96 W/m 45,1 km/h (6 Bft) 91,49 %
25.03.2019 16:38 8,9 C 8,3 C 7,8 C 77 % 1021,1 hPa 0,0 l/m 0 min 2 min 66 W/m 38,6 km/h (5 Bft) 97,83 %
25.03.2019 16:40 8,9 C 7,8 C 7,2 C 77 % 1021,1 hPa 0,0 l/m 0 min 2 min 57 W/m 51,5 km/h (7 Bft) 100,00 %
25.03.2019 16:42 8,7 C 7,8 C 7,2 C 77 % 1021,1 hPa 0,0 l/m 0 min 0 min 58 W/m 51,5 km/h (7 Bft) 98,00 %
25.03.2019 16:44 8,7 C 7,8 C 7,2 C 78 % 1021,2 hPa 0,0 l/m 0 min 0 min 61 W/m 35,4 km/h (5 Bft) 97,87 %
25.03.2019 16:46 8,6 C 7,2 C 6,7 C 80 % 1021,2 hPa 0,0 l/m 0 min 2 min 61 W/m 29,0 km/h (5 Bft) 97,92 %
25.03.2019 16:48 8,5 C 7,2 C 6,7 C 81 % 1021,3 hPa 0,0 l/m 0 min 2 min 52 W/m 35,4 km/h (5 Bft) 100,00 %
25.03.2019 16:50 8,4 C 6,7 C 6,1 C 82 % 1021,4 hPa 0,0 l/m 0 min 2 min 62 W/m 35,4 km/h (5 Bft) 100,00 %
25.03.2019 16:52 8,3 C 6,7 C 6,1 C 83 % 1021,4 hPa 0,0 l/m 0 min 2 min 96 W/m 22,5 km/h (4 Bft) 100,00 %
25.03.2019 16:54 8,3 C 7,2 C 6,1 C 84 % 1021,5 hPa 0,0 l/m 0 min 2 min 124 W/m 29,0 km/h (5 Bft) 100,00 %
25.03.2019 16:56 8,2 C 7,2 C 6,7 C 84 % 1021,4 hPa 0,0 l/m 2 min 2 min 196 W/m 32,2 km/h (5 Bft) 97,96 %
25.03.2019 16:58 8,2 C 7,8 C 6,7 C 85 % 1021,5 hPa 0,0 l/m 2 min 2 min 297 W/m 29,0 km/h (5 Bft) 100,00 %
25.03.2019 17:00 8,2 C 8,3 C 7,2 C 86 % 1021,5 hPa 0,0 l/m 2 min 2 min 201 W/m 22,5 km/h (4 Bft) 100,00 %
25.03.2019 17:02 8,2 C 8,3 C 7,2 C 86 % 1021,3 hPa 0,0 l/m 2 min 2 min 150 W/m 38,6 km/h (5 Bft) 100,00 %
25.03.2019 17:04 8,2 C 8,3 C 7,2 C 86 % 1021,4 hPa 0,0 l/m 0 min 2 min 118 W/m 25,7 km/h (4 Bft) 97,87 %
25.03.2019 17:06 8,2 C 8,3 C 6,7 C 86 % 1021,4 hPa 0,0 l/m 0 min 2 min 97 W/m 32,2 km/h (5 Bft) 100,00 %
25.03.2019 17:08 8,2 C 8,3 C 7,2 C 86 % 1021,5 hPa 0,0 l/m 0 min 2 min 83 W/m 48,3 km/h (6 Bft) 100,00 %
25.03.2019 17:10 8,3 C 8,3 C 7,2 C 85 % 1021,5 hPa 0,0 l/m 0 min 2 min 81 W/m 48,3 km/h (6 Bft) 100,00 %
25.03.2019 17:12 8,3 C 8,3 C 7,2 C 85 % 1021,5 hPa 0,0 l/m 0 min 0 min 85 W/m 38,6 km/h (5 Bft) 100,00 %
25.03.2019 17:14 8,3 C 8,3 C 7,2 C 85 % 1021,5 hPa 0,0 l/m 0 min 0 min 93 W/m 41,8 km/h (6 Bft) 100,00 %
25.03.2019 17:16 8,3 C 8,3 C 7,8 C 84 % 1021,6 hPa 0,0 l/m 0 min 0 min 83 W/m 35,4 km/h (5 Bft) 97,87 %
25.03.2019 17:18 8,3 C 8,3 C 7,2 C 84 % 1021,7 hPa 0,0 l/m 0 min 0 min 67 W/m 41,8 km/h (6 Bft) 100,00 %
25.03.2019 17:20 8,3 C 8,3 C 7,8 C 84 % 1021,8 hPa 0,0 l/m 0 min 0 min 66 W/m 41,8 km/h (6 Bft) 100,00 %
25.03.2019 17:22 8,4 C 8,3 C 7,8 C 84 % 1021,8 hPa 0,0 l/m 0 min 0 min 82 W/m 29,0 km/h (5 Bft) 97,96 %
25.03.2019 17:24 8,4 C 8,3 C 7,8 C 83 % 1021,9 hPa 0,0 l/m 0 min 0 min 88 W/m 35,4 km/h (5 Bft) 100,00 %
25.03.2019 17:26 8,4 C 8,3 C 7,8 C 83 % 1022,0 hPa 0,0 l/m 0 min 0 min 77 W/m 48,3 km/h (6 Bft) 97,83 %
25.03.2019 17:28 8,4 C 8,3 C 7,8 C 83 % 1022,0 hPa 0,0 l/m 0 min 0 min 66 W/m 45,1 km/h (6 Bft) 97,87 %
25.03.2019 17:30 8,4 C 8,3 C 7,8 C 83 % 1022,0 hPa 0,0 l/m 0 min 0 min 65 W/m 29,0 km/h (5 Bft) 95,74 %
25.03.2019 17:32 8,4 C 8,3 C 7,8 C 83 % 1022,0 hPa 0,0 l/m 0 min 0 min 56 W/m 25,7 km/h (4 Bft) 95,74 %
25.03.2019 17:34 8,5 C 8,3 C 7,8 C 83 % 1022,1 hPa 0,0 l/m 0 min 0 min 48 W/m 35,4 km/h (5 Bft) 97,87 %
25.03.2019 17:36 8,5 C 8,3 C 7,8 C 83 % 1022,1 hPa 0,0 l/m 0 min 0 min 45 W/m 38,6 km/h (5 Bft) 97,62 %
25.03.2019 17:38 8,5 C 8,3 C 7,8 C 83 % 1022,2 hPa 0,0 l/m 0 min 2 min 38 W/m 29,0 km/h (5 Bft) 97,96 %
25.03.2019 17:40 8,5 C 7,8 C 7,2 C 83 % 1022,2 hPa 0,0 l/m 0 min 2 min 32 W/m 29,0 km/h (5 Bft) 97,96 %
25.03.2019 17:42 8,5 C 7,8 C 7,2 C 83 % 1022,2 hPa 0,0 l/m 0 min 2 min 36 W/m 32,2 km/h (5 Bft) 95,74 %
25.03.2019 17:44 8,5 C 7,8 C 7,2 C 83 % 1022,3 hPa 0,0 l/m 0 min 2 min 32 W/m 38,6 km/h (5 Bft) 97,87 %
25.03.2019 17:46 8,5 C 7,8 C 7,2 C 83 % 1022,3 hPa 0,0 l/m 0 min 2 min 27 W/m 38,6 km/h (5 Bft) 97,87 %
25.03.2019 17:48 8,4 C 7,8 C 6,7 C 83 % 1022,4 hPa 0,0 l/m 0 min 2 min 29 W/m 25,7 km/h (4 Bft) 97,83 %
25.03.2019 17:50 8,4 C 7,8 C 6,7 C 83 % 1022,4 hPa 0,0 l/m 0 min 2 min 37 W/m 32,2 km/h (5 Bft) 95,74 %
25.03.2019 17:52 8,4 C 7,8 C 6,7 C 83 % 1022,5 hPa 0,0 l/m 0 min 2 min 47 W/m 35,4 km/h (5 Bft) 97,73 %
25.03.2019 17:54 8,3 C 7,8 C 6,7 C 83 % 1022,5 hPa 0,0 l/m 0 min 2 min 41 W/m 38,6 km/h (5 Bft) 97,87 %
25.03.2019 17:56 8,3 C 7,8 C 7,2 C 83 % 1022,6 hPa 0,0 l/m 0 min 2 min 37 W/m 35,4 km/h (5 Bft) 97,87 %
25.03.2019 17:58 8,3 C 7,8 C 7,2 C 83 % 1022,6 hPa 0,0 l/m 0 min 2 min 28 W/m 29,0 km/h (5 Bft) 95,65 %
25.03.2019 18:00 8,2 C 7,8 C 7,2 C 82 % 1022,7 hPa 0,0 l/m 0 min 2 min 23 W/m 41,8 km/h (6 Bft) 95,74 %
25.03.2019 18:02 8,2 C 7,8 C 7,2 C 82 % 1022,7 hPa 0,0 l/m 0 min 2 min 17 W/m 25,7 km/h (4 Bft) 94,00 %
25.03.2019 18:04 8,2 C 7,8 C 7,2 C 82 % 1022,7 hPa 0,0 l/m 0 min 2 min 16 W/m 25,7 km/h (4 Bft) 97,87 %
25.03.2019 18:08 8,2 C 7,8 C 7,2 C 82 % 1022,7 hPa 0,0 l/m 0 min 4 min 13 W/m 51,5 km/h (7 Bft) 95,79 %
25.03.2019 18:10 8,2 C 7,8 C 7,2 C 82 % 1022,8 hPa 0,0 l/m 0 min 2 min 10 W/m 35,4 km/h (5 Bft) 97,87 %
25.03.2019 18:12 8,2 C 7,8 C 7,2 C 81 % 1022,8 hPa 0,0 l/m 0 min 0 min 9 W/m 35,4 km/h (5 Bft) 97,83 %
25.03.2019 18:14 8,2 C 7,8 C 7,2 C 81 % 1022,7 hPa 0,0 l/m 0 min 0 min 7 W/m 41,8 km/h (6 Bft) 97,87 %
25.03.2019 18:16 8,1 C 7,2 C 6,7 C 81 % 1022,7 hPa 0,0 l/m 0 min 0 min 5 W/m 38,6 km/h (5 Bft) 93,62 %
25.03.2019 18:18 8,1 C 7,2 C 6,7 C 81 % 1022,8 hPa 0,0 l/m 0 min 2 min 8 W/m 45,1 km/h (6 Bft) 95,74 %
25.03.2019 18:20 8,1 C 7,2 C 6,7 C 81 % 1022,9 hPa 0,0 l/m 0 min 0 min 7 W/m 45,1 km/h (6 Bft) 95,35 %
25.03.2019 18:22 8,1 C 7,2 C 6,7 C 80 % 1023,0 hPa 0,0 l/m 0 min 0 min 7 W/m 45,1 km/h (6 Bft) 95,92 %
25.03.2019 18:24 8,0 C 7,2 C 6,7 C 80 % 1023,1 hPa 0,0 l/m 0 min 0 min 9 W/m 41,8 km/h (6 Bft) 95,74 %
25.03.2019 18:26 8,0 C 7,2 C 6,7 C 81 % 1023,0 hPa 0,0 l/m 0 min 0 min 9 W/m 38,6 km/h (5 Bft) 93,75 %
25.03.2019 18:28 8,0 C 7,2 C 6,7 C 80 % 1023,1 hPa 0,0 l/m 0 min 0 min 8 W/m 41,8 km/h (6 Bft) 95,74 %
25.03.2019 18:30 8,0 C 7,2 C 6,7 C 80 % 1023,2 hPa 0,0 l/m 0 min 0 min 10 W/m 45,1 km/h (6 Bft) 97,87 %
25.03.2019 18:32 7,9 C 7,2 C 6,7 C 80 % 1023,1 hPa 0,0 l/m 0 min 0 min 11 W/m 35,4 km/h (5 Bft) 97,67 %
25.03.2019 18:34 7,9 C 7,2 C 6,7 C 80 % 1023,1 hPa 0,0 l/m 0 min 0 min 10 W/m 19,3 km/h (3 Bft) 97,83 %
25.03.2019 18:36 7,9 C 7,2 C 6,7 C 80 % 1023,3 hPa 0,0 l/m 0 min 0 min 9 W/m 45,1 km/h (6 Bft) 93,62 %
25.03.2019 18:38 7,9 C 7,2 C 6,7 C 80 % 1023,3 hPa 0,0 l/m 0 min 0 min 8 W/m 32,2 km/h (5 Bft) 97,87 %
25.03.2019 18:40 7,9 C 7,2 C 6,7 C 79 % 1023,4 hPa 0,0 l/m 0 min 0 min 10 W/m 35,4 km/h (5 Bft) 97,87 %
25.03.2019 18:42 7,9 C 7,2 C 6,7 C 79 % 1023,3 hPa 0,0 l/m 0 min 0 min 12 W/m 29,0 km/h (5 Bft) 97,87 %
25.03.2019 18:44 7,9 C 7,2 C 6,7 C 79 % 1023,4 hPa 0,0 l/m 0 min 0 min 12 W/m 45,1 km/h (6 Bft) 95,83 %
25.03.2019 18:46 7,8 C 7,2 C 6,7 C 79 % 1023,5 hPa 0,0 l/m 0 min 0 min 12 W/m 29,0 km/h (5 Bft) 97,96 %
25.03.2019 18:48 7,8 C 7,2 C 6,7 C 79 % 1023,4 hPa 0,0 l/m 0 min 0 min 10 W/m 35,4 km/h (5 Bft) 97,92 %
25.03.2019 18:50 7,8 C 7,2 C 6,7 C 78 % 1023,4 hPa 0,0 l/m 0 min 0 min 6 W/m 29,0 km/h (5 Bft) 97,87 %
25.03.2019 18:52 7,8 C 7,2 C 6,7 C 79 % 1023,5 hPa 0,0 l/m 0 min 0 min 5 W/m 29,0 km/h (5 Bft) 97,87 %
25.03.2019 18:54 7,8 C 7,2 C 6,7 C 78 % 1023,5 hPa 0,0 l/m 0 min 0 min 1 W/m 38,6 km/h (5 Bft) 93,62 %
25.03.2019 18:56 7,7 C 7,2 C 6,7 C 78 % 1023,6 hPa 0,0 l/m 0 min 0 min 0 W/m 29,0 km/h (5 Bft) 95,74 %
25.03.2019 18:58 7,7 C 7,2 C 6,7 C 78 % 1023,7 hPa 0,0 l/m 0 min 0 min 0 W/m 29,0 km/h (5 Bft) 95,35 %
25.03.2019 19:00 7,7 C 7,2 C 6,7 C 78 % 1023,7 hPa 0,0 l/m 0 min 0 min 0 W/m 19,3 km/h (3 Bft) 97,87 %
25.03.2019 19:02 7,7 C 6,7 C 6,7 C 79 % 1023,8 hPa 0,0 l/m 0 min 0 min 0 W/m 25,7 km/h (4 Bft) 97,87 %
25.03.2019 19:04 7,7 C 7,2 C 6,7 C 79 % 1023,8 hPa 0,0 l/m 0 min 0 min 0 W/m 16,1 km/h (3 Bft) 97,87 %
25.03.2019 19:06 7,7 C 7,2 C 6,7 C 79 % 1023,8 hPa 0,0 l/m 0 min 0 min 0 W/m 32,2 km/h (5 Bft) 95,65 %
25.03.2019 19:08 7,7 C 7,2 C 6,7 C 79 % 1023,8 hPa 0,0 l/m 0 min 0 min 0 W/m 25,7 km/h (4 Bft) 97,87 %
25.03.2019 19:10 7,7 C 7,2 C 6,7 C 78 % 1023,8 hPa 0,0 l/m 0 min 0 min 0 W/m 32,2 km/h (5 Bft) 97,87 %
25.03.2019 19:12 7,6 C 7,2 C 6,7 C 79 % 1023,9 hPa 0,0 l/m 0 min 0 min 0 W/m 16,1 km/h (3 Bft) 95,74 %
25.03.2019 19:14 7,6 C 6,7 C 6,7 C 79 % 1024,0 hPa 0,0 l/m 0 min 0 min 0 W/m 22,5 km/h (4 Bft) 97,87 %
25.03.2019 19:16 7,6 C 7,2 C 6,7 C 79 % 1024,0 hPa 0,0 l/m 0 min 0 min 0 W/m 38,6 km/h (5 Bft) 97,87 %
25.03.2019 19:18 7,6 C 7,2 C 6,7 C 79 % 1023,9 hPa 0,0 l/m 0 min 0 min 0 W/m 16,1 km/h (3 Bft) 97,83 %
25.03.2019 19:20 7,6 C 7,2 C 6,7 C 79 % 1024,0 hPa 0,0 l/m 0 min 0 min 0 W/m 29,0 km/h (5 Bft) 97,87 %
25.03.2019 19:22 7,6 C 7,2 C 6,7 C 78 % 1024,1 hPa 0,0 l/m 0 min 0 min 0 W/m 29,0 km/h (5 Bft) 97,87 %
25.03.2019 19:24 7,6 C 7,2 C 6,7 C 78 % 1024,2 hPa 0,0 l/m 0 min 0 min 0 W/m 25,7 km/h (4 Bft) 97,87 %
25.03.2019 19:26 7,6 C 7,2 C 6,7 C 78 % 1024,2 hPa 0,0 l/m 0 min 0 min 0 W/m 22,5 km/h (4 Bft) 97,87 %
25.03.2019 19:28 7,6 C 7,2 C 6,7 C 78 % 1024,2 hPa 0,0 l/m 0 min 0 min 0 W/m 25,7 km/h (4 Bft) 97,87 %
25.03.2019 19:30 7,6 C 7,2 C 6,1 C 78 % 1024,3 hPa 0,0 l/m 0 min 0 min 0 W/m 19,3 km/h (3 Bft) 95,65 %
25.03.2019 19:32 7,6 C 6,7 C 6,1 C 79 % 1024,3 hPa 0,0 l/m 0 min 0 min 0 W/m 9,7 km/h (2 Bft) 97,87 %
25.03.2019 19:34 7,6 C 6,7 C 6,1 C 79 % 1024,3 hPa 0,0 l/m 0 min 0 min 0 W/m 19,3 km/h (3 Bft) 97,87 %
25.03.2019 19:36 7,6 C 6,7 C 6,1 C 79 % 1024,3 hPa 0,0 l/m 0 min 0 min 0 W/m 19,3 km/h (3 Bft) 95,74 %
25.03.2019 19:38 7,6 C 6,7 C 6,1 C 79 % 1024,4 hPa 0,0 l/m 0 min 0 min 0 W/m 25,7 km/h (4 Bft) 98,11 %
25.03.2019 19:40 7,6 C 6,7 C 6,1 C 79 % 1024,3 hPa 0,0 l/m 0 min 0 min 0 W/m 22,5 km/h (4 Bft) 95,74 %
25.03.2019 19:42 7,6 C 6,7 C 6,1 C 79 % 1024,4 hPa 0,0 l/m 0 min 0 min 0 W/m 29,0 km/h (5 Bft) 100,00 %
25.03.2019 19:44 7,6 C 6,7 C 6,1 C 79 % 1024,4 hPa 0,0 l/m 0 min 0 min 0 W/m 32,2 km/h (5 Bft) 100,00 %
25.03.2019 19:46 7,6 C 6,7 C 6,1 C 79 % 1024,4 hPa 0,0 l/m 0 min 0 min 0 W/m 25,7 km/h (4 Bft) 95,74 %
25.03.2019 19:48 7,6 C 6,7 C 6,1 C 79 % 1024,5 hPa 0,0 l/m 0 min 0 min 0 W/m 16,1 km/h (3 Bft) 100,00 %
25.03.2019 19:50 7,6 C 6,7 C 6,1 C 79 % 1024,6 hPa 0,0 l/m 0 min 0 min 0 W/m 25,7 km/h (4 Bft) 100,00 %
25.03.2019 19:52 7,6 C 6,7 C 6,1 C 79 % 1024,6 hPa 0,0 l/m 0 min 0 min 0 W/m 35,4 km/h (5 Bft) 100,00 %
25.03.2019 19:54 7,6 C 6,7 C 6,1 C 79 % 1024,6 hPa 0,0 l/m 0 min 0 min 0 W/m 22,5 km/h (4 Bft) 100,00 %
25.03.2019 19:56 7,5 C 6,7 C 6,1 C 79 % 1024,7 hPa 0,0 l/m 0 min 0 min 0 W/m 25,7 km/h (4 Bft) 100,00 %
25.03.2019 19:58 7,5 C 6,7 C 6,1 C 79 % 1024,7 hPa 0,0 l/m 0 min 0 min 0 W/m 19,3 km/h (3 Bft) 100,00 %
25.03.2019 20:00 7,5 C 6,7 C 6,1 C 80 % 1024,7 hPa 0,0 l/m 0 min 0 min 0 W/m 25,7 km/h (4 Bft) 100,00 %
25.03.2019 20:02 7,5 C 6,7 C 6,1 C 80 % 1024,7 hPa 0,0 l/m 0 min 0 min 0 W/m 19,3 km/h (3 Bft) 97,87 %
25.03.2019 20:04 7,5 C 6,7 C 6,1 C 80 % 1024,7 hPa 0,0 l/m 0 min 0 min 0 W/m 25,7 km/h (4 Bft) 100,00 %
25.03.2019 20:06 7,5 C 6,7 C 6,1 C 80 % 1024,7 hPa 0,0 l/m 0 min 0 min 0 W/m 12,9 km/h (3 Bft) 100,00 %
25.03.2019 20:08 7,5 C 6,7 C 6,1 C 80 % 1024,7 hPa 0,0 l/m 0 min 0 min 0 W/m 16,1 km/h (3 Bft) 100,00 %
25.03.2019 20:10 7,5 C 6,7 C 6,1 C 81 % 1024,8 hPa 0,0 l/m 0 min 0 min 0 W/m 22,5 km/h (4 Bft) 100,00 %
25.03.2019 20:12 7,5 C 6,7 C 6,1 C 81 % 1024,8 hPa 0,0 l/m 0 min 0 min 0 W/m 19,3 km/h (3 Bft) 97,87 %
25.03.2019 20:14 7,4 C 6,7 C 6,1 C 81 % 1024,8 hPa 0,0 l/m 0 min 0 min 0 W/m 29,0 km/h (5 Bft) 100,00 %
25.03.2019 20:16 7,4 C 6,7 C 6,1 C 81 % 1024,8 hPa 0,0 l/m 0 min 0 min 0 W/m 25,7 km/h (4 Bft) 100,00 %
25.03.2019 20:18 7,4 C 6,7 C 6,1 C 81 % 1024,9 hPa 0,0 l/m 0 min 0 min 0 W/m 16,1 km/h (3 Bft) 100,00 %
25.03.2019 20:20 7,4 C 6,7 C 6,1 C 81 % 1024,9 hPa 0,0 l/m 0 min 0 min 0 W/m 25,7 km/h (4 Bft) 100,00 %
25.03.2019 20:22 7,4 C 6,7 C 6,1 C 81 % 1024,9 hPa 0,0 l/m 0 min 0 min 0 W/m 19,3 km/h (3 Bft) 100,00 %
25.03.2019 20:24 7,4 C 6,7 C 6,1 C 81 % 1024,9 hPa 0,0 l/m 0 min 0 min 0 W/m 29,0 km/h (5 Bft) 97,87 %
25.03.2019 20:26 7,4 C 6,7 C 6,1 C 81 % 1025,0 hPa 0,0 l/m 0 min 0 min 0 W/m 22,5 km/h (4 Bft) 97,87 %
25.03.2019 20:28 7,4 C 6,7 C 6,1 C 81 % 1025,0 hPa 0,0 l/m 0 min 0 min 0 W/m 22,5 km/h (4 Bft) 100,00 %
25.03.2019 20:30 7,4 C 6,7 C 6,1 C 81 % 1025,1 hPa 0,0 l/m 0 min 0 min 0 W/m 22,5 km/h (4 Bft) 100,00 %
25.03.2019 20:32 7,4 C 6,7 C 6,1 C 81 % 1025,1 hPa 0,0 l/m 0 min 0 min 0 W/m 29,0 km/h (5 Bft) 97,87 %
25.03.2019 20:34 7,3 C 6,7 C 6,1 C 81 % 1025,1 hPa 0,0 l/m 0 min 0 min 0 W/m 29,0 km/h (5 Bft) 100,00 %
25.03.2019 20:36 7,3 C 6,7 C 6,1 C 81 % 1025,2 hPa 0,0 l/m 0 min 0 min 0 W/m 19,3 km/h (3 Bft) 97,87 %
25.03.2019 20:38 7,3 C 6,7 C 6,1 C 81 % 1025,1 hPa 0,0 l/m 0 min 0 min 0 W/m 22,5 km/h (4 Bft) 97,37 %
25.03.2019 20:40 7,2 C 6,1 C 5,6 C 81 % 1025,2 hPa 0,0 l/m 0 min 0 min 0 W/m 32,2 km/h (5 Bft) 100,00 %
25.03.2019 20:42 7,2 C 6,1 C 5,6 C 81 % 1025,3 hPa 0,0 l/m 0 min 0 min 0 W/m 29,0 km/h (5 Bft) 97,87 %
25.03.2019 20:44 7,2 C 6,1 C 5,6 C 81 % 1025,3 hPa 0,0 l/m 0 min 0 min 0 W/m 19,3 km/h (3 Bft) 97,83 %
25.03.2019 20:46 7,2 C 6,1 C 5,6 C 81 % 1025,3 hPa 0,0 l/m 0 min 0 min 0 W/m 35,4 km/h (5 Bft) 97,87 %
25.03.2019 20:48 7,1 C 6,1 C 5,6 C 81 % 1025,3 hPa 0,0 l/m 0 min 0 min 0 W/m 22,5 km/h (4 Bft) 97,87 %
25.03.2019 20:50 7,1 C 6,1 C 5,6 C 81 % 1025,4 hPa 0,0 l/m 0 min 0 min 0 W/m 22,5 km/h (4 Bft) 100,00 %
25.03.2019 20:52 7,1 C 6,1 C 5,6 C 81 % 1025,4 hPa 0,0 l/m 0 min 0 min 0 W/m 25,7 km/h (4 Bft) 97,87 %
25.03.2019 20:54 7,1 C 6,1 C 5,6 C 81 % 1025,4 hPa 0,0 l/m 0 min 0 min 0 W/m 19,3 km/h (3 Bft) 95,74 %
25.03.2019 20:56 7,0 C 6,1 C 5,6 C 81 % 1025,4 hPa 0,0 l/m 0 min 0 min 0 W/m 22,5 km/h (4 Bft) 97,83 %
25.03.2019 20:58 7,0 C 6,1 C 5,6 C 81 % 1025,5 hPa 0,0 l/m 0 min 0 min 0 W/m 29,0 km/h (5 Bft) 97,87 %
25.03.2019 21:00 6,9 C 6,1 C 5,6 C 81 % 1025,4 hPa 0,0 l/m 0 min 0 min 0 W/m 22,5 km/h (4 Bft) 95,74 %
25.03.2019 21:02 6,9 C 6,1 C 5,6 C 81 % 1025,5 hPa 0,0 l/m 0 min 0 min 0 W/m 19,3 km/h (3 Bft) 97,87 %
25.03.2019 21:04 6,9 C 6,1 C 5,6 C 81 % 1025,5 hPa 0,0 l/m 0 min 0 min 0 W/m 19,3 km/h (3 Bft) 97,87 %
25.03.2019 21:06 6,9 C 6,1 C 5,6 C 81 % 1025,7 hPa 0,0 l/m 0 min 0 min 0 W/m 29,0 km/h (5 Bft) 96,55 %
25.03.2019 21:08 6,8 C 6,1 C 5,0 C 81 % 1025,7 hPa 0,0 l/m 0 min 0 min 0 W/m 22,5 km/h (4 Bft) 97,37 %
25.03.2019 21:10 6,8 C 5,6 C 5,0 C 81 % 1025,7 hPa 0,0 l/m 0 min 0 min 0 W/m 25,7 km/h (4 Bft) 93,62 %
25.03.2019 21:12 6,8 C 5,6 C 5,0 C 82 % 1025,7 hPa 0,0 l/m 0 min 0 min 0 W/m 35,4 km/h (5 Bft) 93,62 %
25.03.2019 21:14 6,8 C 5,6 C 5,6 C 82 % 1025,7 hPa 0,0 l/m 0 min 0 min 0 W/m 22,5 km/h (4 Bft) 95,74 %
25.03.2019 21:16 6,7 C 5,6 C 5,0 C 82 % 1025,8 hPa 0,0 l/m 0 min 0 min 0 W/m 19,3 km/h (3 Bft) 95,65 %
25.03.2019 21:18 6,7 C 6,1 C 5,6 C 82 % 1025,7 hPa 0,0 l/m 0 min 0 min 0 W/m 16,1 km/h (3 Bft) 95,74 %
25.03.2019 21:20 6,7 C 6,1 C 5,6 C 82 % 1025,8 hPa 0,0 l/m 0 min 0 min 0 W/m 16,1 km/h (3 Bft) 91,49 %
25.03.2019 21:22 6,7 C 6,1 C 5,6 C 82 % 1025,9 hPa 0,0 l/m 0 min 0 min 0 W/m 19,3 km/h (3 Bft) 93,62 %
25.03.2019 21:24 6,7 C 5,6 C 5,0 C 82 % 1025,9 hPa 0,0 l/m 0 min 0 min 0 W/m 19,3 km/h (3 Bft) 95,74 %
25.03.2019 21:26 6,6 C 5,6 C 5,0 C 82 % 1025,9 hPa 0,0 l/m 0 min 0 min 0 W/m 12,9 km/h (3 Bft) 95,74 %
25.03.2019 21:28 6,6 C 5,6 C 5,0 C 82 % 1025,9 hPa 0,0 l/m 0 min 0 min 0 W/m 16,1 km/h (3 Bft) 95,65 %
25.03.2019 21:30 6,6 C 5,6 C 5,0 C 83 % 1025,9 hPa 0,0 l/m 0 min 0 min 0 W/m 22,5 km/h (4 Bft) 95,74 %
25.03.2019 21:32 6,6 C 5,6 C 5,0 C 83 % 1026,0 hPa 0,0 l/m 0 min 0 min 0 W/m 16,1 km/h (3 Bft) 93,62 %
25.03.2019 21:34 6,6 C 5,6 C 5,6 C 83 % 1026,0 hPa 0,0 l/m 0 min 0 min 0 W/m 22,5 km/h (4 Bft) 95,74 %
25.03.2019 21:36 6,6 C 5,6 C 5,6 C 83 % 1026,1 hPa 0,0 l/m 0 min 0 min 0 W/m 19,3 km/h (3 Bft) 95,74 %
25.03.2019 21:38 6,6 C 5,6 C 5,0 C 83 % 1026,1 hPa 0,0 l/m 0 min 0 min 0 W/m 16,1 km/h (3 Bft) 97,87 %
25.03.2019 21:40 6,6 C 5,6 C 5,0 C 83 % 1026,1 hPa 0,0 l/m 0 min 0 min 0 W/m 12,9 km/h (3 Bft) 95,65 %
25.03.2019 21:42 6,6 C 5,6 C 5,0 C 83 % 1026,2 hPa 0,0 l/m 0 min 0 min 0 W/m 12,9 km/h (3 Bft) 95,74 %
25.03.2019 21:44 6,5 C 5,6 C 5,0 C 83 % 1026,2 hPa 0,0 l/m 0 min 0 min 0 W/m 19,3 km/h (3 Bft) 95,74 %
25.03.2019 21:46 6,5 C 5,6 C 5,0 C 83 % 1026,2 hPa 0,0 l/m 0 min 0 min 0 W/m 16,1 km/h (3 Bft) 95,74 %
25.03.2019 21:48 6,5 C 6,1 C 5,6 C 83 % 1026,3 hPa 0,0 l/m 0 min 0 min 0 W/m 19,3 km/h (3 Bft) 93,62 %
25.03.2019 21:50 6,5 C 6,1 C 5,6 C 83 % 1026,3 hPa 0,0 l/m 0 min 0 min 0 W/m 22,5 km/h (4 Bft) 93,48 %
25.03.2019 21:52 6,5 C 6,1 C 5,6 C 83 % 1026,4 hPa 0,0 l/m 0 min 0 min 0 W/m 16,1 km/h (3 Bft) 93,62 %
25.03.2019 21:54 6,5 C 6,1 C 5,6 C 83 % 1026,3 hPa 0,0 l/m 0 min 0 min 0 W/m 12,9 km/h (3 Bft) 95,74 %
25.03.2019 21:56 6,5 C 6,1 C 5,0 C 83 % 1026,4 hPa 0,0 l/m 0 min 0 min 0 W/m 19,3 km/h (3 Bft) 95,74 %
25.03.2019 21:58 6,5 C 6,1 C 5,6 C 83 % 1026,4 hPa 0,0 l/m 0 min 0 min 0 W/m 16,1 km/h (3 Bft) 97,87 %
25.03.2019 22:00 6,5 C 6,1 C 5,6 C 83 % 1026,4 hPa 0,0 l/m 0 min 0 min 0 W/m 19,3 km/h (3 Bft) 95,74 %
25.03.2019 22:02 6,5 C 6,1 C 5,6 C 83 % 1026,4 hPa 0,0 l/m 0 min 0 min 0 W/m 16,1 km/h (3 Bft) 93,48 %
25.03.2019 22:04 6,5 C 6,1 C 5,6 C 83 % 1026,4 hPa 0,0 l/m 0 min 0 min 0 W/m 19,3 km/h (3 Bft) 93,62 %
25.03.2019 22:06 6,5 C 6,1 C 5,6 C 84 % 1026,4 hPa 0,0 l/m 0 min 0 min 0 W/m 9,7 km/h (2 Bft) 93,62 %
25.03.2019 22:08 6,5 C 6,1 C 5,6 C 84 % 1026,5 hPa 0,0 l/m 0 min 0 min 0 W/m 22,5 km/h (4 Bft) 92,45 %
25.03.2019 22:10 6,5 C 6,1 C 5,6 C 84 % 1026,6 hPa 0,0 l/m 0 min 0 min 0 W/m 16,1 km/h (3 Bft) 95,74 %
25.03.2019 22:12 6,5 C 6,1 C 5,6 C 84 % 1026,5 hPa 0,0 l/m 0 min 0 min 0 W/m 16,1 km/h (3 Bft) 95,74 %
25.03.2019 22:14 6,5 C 6,1 C 5,6 C 84 % 1026,5 hPa 0,0 l/m 0 min 0 min 0 W/m 19,3 km/h (3 Bft) 95,74 %
25.03.2019 22:16 6,5 C 6,1 C 5,6 C 84 % 1026,5 hPa 0,0 l/m 0 min 0 min 0 W/m 16,1 km/h (3 Bft) 95,65 %
25.03.2019 22:18 6,5 C 6,1 C 5,6 C 84 % 1026,6 hPa 0,0 l/m 0 min 0 min 0 W/m 29,0 km/h (5 Bft) 97,87 %
25.03.2019 22:20 6,5 C 6,1 C 5,6 C 84 % 1026,7 hPa 0,0 l/m 0 min 0 min 0 W/m 22,5 km/h (4 Bft) 97,87 %
25.03.2019 22:22 6,5 C 6,1 C 5,6 C 84 % 1026,7 hPa 0,0 l/m 0 min 0 min 0 W/m 25,7 km/h (4 Bft) 95,74 %
25.03.2019 22:24 6,5 C 6,1 C 5,6 C 84 % 1026,9 hPa 0,0 l/m 0 min 0 min 0 W/m 16,1 km/h (3 Bft) 97,87 %
25.03.2019 22:26 6,5 C 6,1 C 5,6 C 84 % 1026,8 hPa 0,0 l/m 0 min 0 min 0 W/m 16,1 km/h (3 Bft) 95,74 %
25.03.2019 22:28 6,5 C 6,1 C 5,6 C 84 % 1027,0 hPa 0,0 l/m 0 min 0 min 0 W/m 19,3 km/h (3 Bft) 100,00 %
25.03.2019 22:30 6,5 C 6,1 C 5,6 C 84 % 1026,9 hPa 0,0 l/m 0 min 0 min 0 W/m 22,5 km/h (4 Bft) 100,00 %
25.03.2019 22:32 6,5 C 6,1 C 5,6 C 84 % 1027,0 hPa 0,0 l/m 0 min 0 min 0 W/m 9,7 km/h (2 Bft) 100,00 %
25.03.2019 22:34 6,5 C 5,6 C 5,6 C 84 % 1027,0 hPa 0,0 l/m 0 min 0 min 0 W/m 12,9 km/h (3 Bft) 100,00 %
25.03.2019 22:36 6,4 C 6,1 C 5,6 C 84 % 1027,1 hPa 0,0 l/m 0 min 0 min 0 W/m 19,3 km/h (3 Bft) 97,87 %
25.03.2019 22:38 6,4 C 6,1 C 5,6 C 84 % 1027,1 hPa 0,0 l/m 0 min 0 min 0 W/m 25,7 km/h (4 Bft) 100,00 %
25.03.2019 22:40 6,4 C 6,1 C 5,6 C 84 % 1027,2 hPa 0,0 l/m 0 min 0 min 0 W/m 25,7 km/h (4 Bft) 100,00 %
25.03.2019 22:42 6,4 C 6,1 C 5,6 C 84 % 1027,2 hPa 0,0 l/m 0 min 0 min 0 W/m 22,5 km/h (4 Bft) 100,00 %
25.03.2019 22:44 6,4 C 6,1 C 5,6 C 84 % 1027,2 hPa 0,0 l/m 0 min 0 min 0 W/m 22,5 km/h (4 Bft) 100,00 %
25.03.2019 22:46 6,4 C 6,1 C 5,6 C 84 % 1027,3 hPa 0,0 l/m 0 min 0 min 0 W/m 22,5 km/h (4 Bft) 100,00 %
25.03.2019 22:48 6,4 C 6,1 C 5,6 C 84 % 1027,2 hPa 0,0 l/m 0 min 0 min 0 W/m 12,9 km/h (3 Bft) 100,00 %
25.03.2019 22:50 6,4 C 5,6 C 5,6 C 84 % 1027,3 hPa 0,0 l/m 0 min 0 min 0 W/m 16,1 km/h (3 Bft) 100,00 %
25.03.2019 22:52 6,4 C 5,6 C 5,6 C 84 % 1027,4 hPa 0,0 l/m 0 min 0 min 0 W/m 12,9 km/h (3 Bft) 100,00 %
25.03.2019 22:54 6,4 C 5,6 C 5,6 C 84 % 1027,4 hPa 0,0 l/m 0 min 0 min 0 W/m 22,5 km/h (4 Bft) 97,87 %
25.03.2019 22:56 6,4 C 5,6 C 5,6 C 84 % 1027,5 hPa 0,0 l/m 0 min 0 min 0 W/m 19,3 km/h (3 Bft) 100,00 %
25.03.2019 22:58 6,4 C 5,6 C 5,6 C 84 % 1027,5 hPa 0,0 l/m 0 min 0 min 0 W/m 16,1 km/h (3 Bft) 97,87 %
25.03.2019 23:00 6,4 C 5,6 C 5,0 C 84 % 1027,5 hPa 0,0 l/m 0 min 0 min 0 W/m 16,1 km/h (3 Bft) 100,00 %
25.03.2019 23:02 6,4 C 5,6 C 5,0 C 84 % 1027,5 hPa 0,0 l/m 0 min 0 min 0 W/m 16,1 km/h (3 Bft) 100,00 %
25.03.2019 23:04 6,4 C 5,6 C 5,0 C 84 % 1027,5 hPa 0,0 l/m 0 min 0 min 0 W/m 16,1 km/h (3 Bft) 100,00 %
25.03.2019 23:06 6,4 C 5,6 C 5,6 C 84 % 1027,4 hPa 0,0 l/m 0 min 0 min 0 W/m 22,5 km/h (4 Bft) 100,00 %
25.03.2019 23:08 6,4 C 5,6 C 5,6 C 84 % 1027,4 hPa 0,0 l/m 0 min 0 min 0 W/m 22,5 km/h (4 Bft) 100,00 %
25.03.2019 23:10 6,4 C 5,6 C 5,0 C 84 % 1027,5 hPa 0,0 l/m 0 min 0 min 0 W/m 19,3 km/h (3 Bft) 100,00 %
25.03.2019 23:12 6,4 C 5,6 C 5,6 C 84 % 1027,4 hPa 0,0 l/m 0 min 0 min 0 W/m 19,3 km/h (3 Bft) 97,87 %
25.03.2019 23:14 6,4 C 5,6 C 5,6 C 84 % 1027,4 hPa 0,0 l/m 0 min 0 min 0 W/m 29,0 km/h (5 Bft) 97,87 %
25.03.2019 23:16 6,4 C 5,6 C 5,6 C 84 % 1027,5 hPa 0,0 l/m 0 min 0 min 0 W/m 19,3 km/h (3 Bft) 100,00 %
25.03.2019 23:18 6,4 C 5,6 C 5,6 C 84 % 1027,5 hPa 0,0 l/m 0 min 0 min 0 W/m 16,1 km/h (3 Bft) 100,00 %
25.03.2019 23:20 6,4 C 5,6 C 5,6 C 84 % 1027,5 hPa 0,0 l/m 0 min 0 min 0 W/m 19,3 km/h (3 Bft) 100,00 %
25.03.2019 23:22 6,4 C 5,6 C 5,6 C 84 % 1027,6 hPa 0,0 l/m 0 min 0 min 0 W/m 16,1 km/h (3 Bft) 97,87 %
25.03.2019 23:24 6,4 C 5,6 C 5,0 C 84 % 1027,6 hPa 0,0 l/m 0 min 0 min 0 W/m 12,9 km/h (3 Bft) 97,87 %
25.03.2019 23:26 6,4 C 5,6 C 5,0 C 84 % 1027,6 hPa 0,0 l/m 0 min 0 min 0 W/m 16,1 km/h (3 Bft) 100,00 %
25.03.2019 23:28 6,4 C 5,6 C 5,0 C 84 % 1027,6 hPa 0,0 l/m 0 min 0 min 0 W/m 12,9 km/h (3 Bft) 100,00 %
25.03.2019 23:30 6,4 C 5,6 C 5,0 C 84 % 1027,6 hPa 0,0 l/m 0 min 0 min 0 W/m 9,7 km/h (2 Bft) 100,00 %
25.03.2019 23:32 6,4 C 5,6 C 5,0 C 84 % 1027,7 hPa 0,0 l/m 0 min 0 min 0 W/m 19,3 km/h (3 Bft) 97,87 %
25.03.2019 23:34 6,4 C 5,6 C 5,0 C 84 % 1027,7 hPa 0,0 l/m 0 min 0 min 0 W/m 12,9 km/h (3 Bft) 97,87 %
25.03.2019 23:36 6,4 C 5,6 C 5,0 C 84 % 1027,7 hPa 0,0 l/m 0 min 0 min 0 W/m 12,9 km/h (3 Bft) 93,62 %
25.03.2019 23:38 6,4 C 5,6 C 5,0 C 84 % 1027,8 hPa 0,0 l/m 0 min 0 min 0 W/m 12,9 km/h (3 Bft) 97,87 %
25.03.2019 23:40 6,4 C 5,6 C 5,0 C 84 % 1027,8 hPa 0,0 l/m 0 min 0 min 0 W/m 12,9 km/h (3 Bft) 97,83 %
25.03.2019 23:42 6,3 C 5,6 C 5,0 C 85 % 1027,8 hPa 0,0 l/m 0 min 0 min 0 W/m 16,1 km/h (3 Bft) 95,74 %
25.03.2019 23:44 6,3 C 5,6 C 5,0 C 85 % 1027,8 hPa 0,0 l/m 0 min 0 min 0 W/m 16,1 km/h (3 Bft) 97,87 %
25.03.2019 23:46 6,3 C 5,6 C 5,0 C 85 % 1027,8 hPa 0,0 l/m 0 min 0 min 0 W/m 25,7 km/h (4 Bft) 97,87 %
25.03.2019 23:48 6,3 C 5,6 C 5,0 C 85 % 1027,9 hPa 0,0 l/m 0 min 0 min 0 W/m 19,3 km/h (3 Bft) 97,87 %
25.03.2019 23:50 6,3 C 5,6 C 5,0 C 85 % 1027,9 hPa 0,0 l/m 0 min 0 min 0 W/m 22,5 km/h (4 Bft) 97,87 %
25.03.2019 23:52 6,3 C 5,6 C 5,0 C 85 % 1027,9 hPa 0,0 l/m 0 min 0 min 0 W/m 19,3 km/h (3 Bft) 97,83 %
25.03.2019 23:54 6,3 C 5,6 C 5,0 C 85 % 1027,9 hPa 0,0 l/m 0 min 0 min 0 W/m 19,3 km/h (3 Bft) 97,87 %
25.03.2019 23:56 6,3 C 5,6 C 5,0 C 85 % 1028,0 hPa 0,0 l/m 0 min 0 min 0 W/m 12,9 km/h (3 Bft) 97,87 %
25.03.2019 23:58 6,3 C 5,6 C 5,0 C 85 % 1028,0 hPa 0,0 l/m 0 min 0 min 0 W/m 12,9 km/h (3 Bft) 97,87 %
_ Min-Zeit 01:26 06:26 00:00 12:16 04:52 - - - - 00:00 00:10
Minimum _ 3,9 C 2,8 C 2,2 C 75 % 1017,8 hPa - - - - 0,0 km/h (0 Bft) 91,30 %
_ Max-Zeit 12:10 12:08 13:14 06:54 23:56 12:44 12:08 05:10 12:08 15:26 01:12
Maximum _ 10,1 C 18,3 C 13,9 C 93 % 1028,0 hPa 0,4 l/m 4 min 5 min 878 W/m 64,4 km/h
W-NW (8 Bft)
100,00 %
Durchschnitt _ 6,7 C 7,1 C 5,9 C 84 % 1021,2 hPa #2,0 l/m #4:12 h #5:10 h 237 W/m 24,4 km/h (4 Bft) 97,46 %
© 2019 W. Hausmann